K5BWX-2 Weather Reports


Display with metric or nautical units.
time (UTC)temp
F
wind
direction
speed
MPH
gust
MPH
rain 1hr
in
rain 24hr
in
rain mn
in
humidity
%
barometer
mb
20260831080115 75 153 2.0 6.0 0.00 0.00 0.00 81 1022.7
20260831080015 74 189 2.0 6.0 0.00 0.00 0.00 81 1022.8
20260831075911 74 189 2.0 6.0 0.00 0.00 0.00 81 1022.7
20260831075813 74 207 2.0 6.0 0.00 0.00 0.00 81 1022.8
20260831075711 74 166 2.0 6.0 0.00 0.00 0.00 81 1022.8
20260831075610 74 156 2.0 8.0 0.00 0.00 0.00 81 1022.9
20260831075509 74 156 2.0 8.0 0.00 0.00 0.00 81 1022.8
20260831075407 74 156 2.0 8.0 0.00 0.00 0.00 81 1022.8
20260831075306 74 206 2.0 8.0 0.00 0.00 0.00 81 1022.8
20260831075204 74 206 2.0 8.0 0.00 0.00 0.00 81 1022.8
20260831075104 74 187 2.0 8.0 0.00 0.00 0.00 81 1022.8
20260831075003 74 178 2.0 8.0 0.00 0.00 0.00 81 1022.8
20260831074903 74 195 2.0 8.0 0.00 0.00 0.00 81 1022.8
20260831074802 74 157 1.0 8.0 0.00 0.00 0.00 82 1022.8
20260831074702 74 229 1.0 8.0 0.00 0.00 0.00 82 1022.8
20260831074603 74 219 1.0 6.0 0.00 0.00 0.00 82 1022.8
20260831074501 74 225 1.0 6.0 0.00 0.00 0.00 82 1022.8
20260831074359 74 133 1.0 6.0 0.00 0.00 0.00 82 1022.8
20260831074252 74 132 1.0 6.0 0.00 0.00 0.00 82 1022.8
20260831074152 74 129 2.0 6.0 0.00 0.00 0.00 82 1022.8
20260831074054 74 198 1.0 6.0 0.00 0.00 0.00 83 1022.8
20260831073953 73 198 2.0 6.0 0.00 0.00 0.00 83 1022.8
20260831073854 73 190 2.0 6.0 0.00 0.00 0.00 83 1022.8
20260831073752 73 190 2.0 6.0 0.00 0.00 0.00 83 1022.8
20260831073650 73 217 2.0 6.0 0.00 0.00 0.00 83 1022.8
20260831073547 73 236 2.0 6.0 0.00 0.00 0.00 83 1022.8
20260831073448 73 235 2.0 6.0 0.00 0.00 0.00 83 1022.8
20260831073351 73 167 1.0 6.0 0.00 0.00 0.00 83 1022.8
20260831073243 73 158 1.0 6.0 0.00 0.00 0.00 84 1022.9
20260831073142 73 230 1.0 6.0 0.00 0.00 0.00 84 1022.8
20260831073042 73 228 1.0 6.0 0.00 0.00 0.00 84 1022.9
20260831072941 73 175 1.0 6.0 0.00 0.00 0.00 84 1022.9
20260831072843 73 180 1.0 5.0 0.00 0.00 0.00 84 1022.9
20260831072740 73 190 2.0 5.0 0.00 0.00 0.00 84 1022.9
20260831072638 73 83 1.0 5.0 0.00 0.00 0.00 84 1023.0
20260831072536 73 202 2.0 5.0 0.00 0.00 0.00 84 1022.9
20260831072436 73 165 2.0 5.0 0.00 0.00 0.00 84 1022.9
20260831072340 73 157 2.0 5.0 0.00 0.00 0.00 84 1022.9
20260831072333 73 150 2.0 5.0 0.00 0.00 0.00 84 1022.8
20260831072314 73 157 2.0 5.0 0.00 0.00 0.00 84 1022.9
20260831072155 73 157 2.0 5.0 0.00 0.00 0.00 84 1022.9
20260831071933 73 170 2.0 5.0 0.00 0.00 0.00 84 1022.9
20260831071835 73 165 2.0 5.0 0.00 0.00 0.00 84 1022.9
20260831071809 73 254 1.0 5.0 0.00 0.00 0.00 83 1022.9
20260831071758 73 252 1.0 5.0 0.00 0.00 0.00 84 1022.9
20260831071526 73 238 1.0 5.0 0.00 0.00 0.00 83 1022.9
20260831071427 73 190 1.0 4.0 0.00 0.00 0.00 83 1023.0
20260831071328 73 191 1.0 4.0 0.00 0.00 0.00 83 1022.9
20260831071305 73 182 1.0 6.0 0.00 0.00 0.00 83 1022.9
20260831071252 73 180 1.0 6.0 0.00 0.00 0.00 83 1022.9
20260831071025 73 176 1.0 6.0 0.00 0.00 0.00 83 1022.9
20260831070926 73 143 1.0 6.0 0.00 0.00 0.00 83 1022.9
20260831070823 73 69 1.0 6.0 0.00 0.00 0.00 83 1022.9
20260831070728 73 166 1.0 6.0 0.00 0.00 0.00 83 1022.9
20260831070654 73 203 1.0 4.0 0.00 0.00 0.00 83 1023.0
20260831070649 73 161 1.0 6.0 0.00 0.00 0.00 83 1022.9
20260831070636 73 166 1.0 6.0 0.00 0.00 0.00 83 1022.9
20260831070618 73 161 1.0 6.0 0.00 0.00 0.00 83 1022.9
20260831070333 73 148 1.0 6.0 0.00 0.00 0.00 83 1022.9
20260831070117 73 186 1.0 4.0 0.00 0.00 0.00 83 1022.9
20260831070014 73 243 1.0 4.0 0.00 0.00 0.00 83 1022.9
20260831065912 73 196 1.0 4.0 0.00 0.00 0.00 83 1022.9
20260831065814 73 196 1.0 4.0 0.00 0.00 0.00 83 1022.8
20260831065711 73 258 1.0 5.0 0.00 0.00 0.00 83 1022.9
20260831065610 73 258 1.0 5.0 0.00 0.00 0.00 83 1022.9
20260831065510 73 195 1.0 5.0 0.00 0.00 0.00 83 1022.9
20260831065410 73 166 1.0 5.0 0.00 0.00 0.00 83 1022.9
20260831065311 73 158 1.0 5.0 0.00 0.00 0.00 83 1023.0
20260831065209 73 158 1.0 5.0 0.00 0.00 0.00 83 1022.9
20260831065140 73 180 1.0 5.0 0.00 0.00 0.00 83 1023.0
20260831065129 73 157 1.0 5.0 0.00 0.00 0.00 83 1022.8
20260831064905 73 180 1.0 5.0 0.00 0.00 0.00 83 1023.0
20260831064805 73 180 1.0 5.0 0.00 0.00 0.00 83 1022.9
20260831064704 73 252 1.0 4.0 0.00 0.00 0.00 83 1023.0
20260831064604 73 195 1.0 4.0 0.00 0.00 0.00 83 1022.9
20260831064507 73 194 1.0 4.0 0.00 0.00 0.00 83 1022.9
20260831064430 73 182 1.0 4.0 0.00 0.00 0.00 82 1023.0
20260831064421 73 207 1.0 4.0 0.00 0.00 0.00 83 1022.9
20260831064157 73 160 1.0 6.0 0.00 0.00 0.00 82 1022.9
20260831064059 73 216 1.0 6.0 0.00 0.00 0.00 82 1023.0
20260831064030 73 197 1.0 6.0 0.00 0.00 0.00 82 1022.9
20260831064018 73 182 1.0 6.0 0.00 0.00 0.00 82 1023.0
20260831063753 73 169 1.0 6.0 0.00 0.00 0.00 82 1023.0
20260831063652 74 221 1.0 6.0 0.00 0.00 0.00 82 1023.0
20260831063553 73 221 1.0 6.0 0.00 0.00 0.00 82 1023.0
20260831063450 74 221 1.0 6.0 0.00 0.00 0.00 82 1022.9
20260831063349 74 170 1.0 6.0 0.00 0.00 0.00 82 1023.0
20260831063247 74 203 1.0 6.0 0.00 0.00 0.00 82 1023.0
20260831063221 74 189 1.0 6.0 0.00 0.00 0.00 82 1023.0
20260831063211 74 175 1.0 6.0 0.00 0.00 0.00 82 1023.0
20260831063002 73 152 1.0 6.0 0.00 0.00 0.00 82 1023.0
20260831062949 73 152 1.0 6.0 0.00 0.00 0.00 82 1023.0
20260831062928 73 152 1.0 6.0 0.00 0.00 0.00 82 1023.0
20260831062806 73 152 1.0 6.0 0.00 0.00 0.00 82 1023.1
20260831062543 73 153 1.0 6.0 0.00 0.00 0.00 83 1023.0
20260831062445 73 153 1.0 6.0 0.00 0.00 0.00 83 1023.0
20260831062343 73 142 1.0 6.0 0.00 0.00 0.00 83 1023.0
20260831062244 73 163 1.0 6.0 0.00 0.00 0.00 83 1022.9
20260831062145 73 146 1.0 6.0 0.00 0.00 0.00 83 1023.1
20260831062039 73 146 1.0 6.0 0.00 0.00 0.00 83 1023.0
20260831061938 73 144 1.0 6.0 0.00 0.00 0.00 83 1023.0
20260831061839 73 156 1.0 4.0 0.00 0.00 0.00 83 1023.0
20260831061809 73 156 1.0 4.0 0.00 0.00 0.00 83 1023.0
20260831061758 73 156 1.0 4.0 0.00 0.00 0.00 83 1023.0
20260831061525 73 156 1.0 4.0 0.00 0.00 0.00 83 1023.1
20260831061430 73 212 1.0 4.0 0.00 0.00 0.00 83 1023.1
20260831061356 73 229 1.0 4.0 0.00 0.00 0.00 83 1023.1
20260831061345 73 229 1.0 4.0 0.00 0.00 0.00 83 1023.1
20260831061157 73 139 1.0 5.0 0.00 0.00 0.00 83 1023.1
20260831061146 73 229 1.0 5.0 0.00 0.00 0.00 83 1023.1
20260831060929 73 209 1.0 5.0 0.00 0.00 0.00 83 1023.1
20260831060858 73 165 1.0 5.0 0.00 0.00 0.00 83 1023.0
20260831060847 73 209 1.0 5.0 0.00 0.00 0.00 83 1023.1
20260831060622 73 178 1.0 5.0 0.00 0.00 0.00 83 1023.0
20260831060523 73 193 1.0 5.0 0.00 0.00 0.00 83 1023.0
20260831060422 73 193 1.0 5.0 0.00 0.00 0.00 83 1023.0
20260831060322 73 192 1.0 5.0 0.00 0.00 0.00 83 1023.0
20260831060219 73 192 1.0 5.0 0.00 0.00 0.00 83 1023.0
20260831060121 73 209 1.0 4.0 0.00 0.00 0.00 83 1023.0
20260831060020 73 217 1.0 4.0 0.00 0.00 0.00 83 1023.0
20260831055921 73 145 1.0 4.0 0.00 0.00 0.00 83 1023.0
20260831055817 73 135 1.0 4.0 0.00 0.00 0.00 83 1023.0
20260831055729 73 117 1.0 5.0 0.00 0.00 0.00 83 1023.0
20260831055720 73 175 1.0 4.0 0.00 0.00 0.00 83 1023.1
20260831055713 73 194 2.0 5.0 0.00 0.00 0.00 83 1023.0
20260831055653 73 166 1.0 4.0 0.00 0.00 0.00 83 1023.0
20260831055319 73 194 2.0 5.0 0.00 0.00 0.00 83 1023.0
20260831055217 73 178 2.0 5.0 0.00 0.00 0.00 83 1023.1
20260831055118 73 178 2.0 5.0 0.00 0.00 0.00 83 1023.1
20260831055019 73 178 2.0 6.0 0.00 0.00 0.00 83 1023.1
20260831054918 73 249 2.0 6.0 0.00 0.00 0.00 83 1023.1
20260831054902 73 171 2.0 6.0 0.00 0.00 0.00 83 1023.1
20260831054850 73 226 2.0 6.0 0.00 0.00 0.00 83 1023.1
20260831054618 73 174 2.0 6.0 0.00 0.00 0.00 83 1023.1
20260831054519 73 189 2.0 6.0 0.00 0.00 0.00 83 1023.1
20260831054425 73 192 2.0 6.0 0.00 0.00 0.00 83 1023.1
20260831054320 73 245 2.0 6.0 0.00 0.00 0.00 83 1023.1
20260831054217 73 195 2.0 6.0 0.00 0.00 0.00 84 1023.1
20260831054119 73 217 2.0 7.0 0.00 0.00 0.00 84 1023.1
20260831054017 73 192 2.0 7.0 0.00 0.00 0.00 83 1023.2
20260831053919 73 198 2.0 7.0 0.00 0.00 0.00 84 1023.2
20260831053817 73 195 2.0 7.0 0.00 0.00 0.00 84 1023.2
20260831053717 73 199 2.0 7.0 0.00 0.00 0.00 83 1023.1
20260831053617 73 197 2.0 7.0 0.00 0.00 0.00 84 1023.2
20260831053551 73 155 2.0 7.0 0.00 0.00 0.00 83 1023.2
20260831053540 73 248 2.0 7.0 0.00 0.00 0.00 84 1023.2
20260831053353 73 173 2.0 7.0 0.00 0.00 0.00 83 1023.2
20260831053341 73 227 2.0 7.0 0.00 0.00 0.00 83 1023.1
20260831053117 73 192 2.0 6.0 0.00 0.00 0.00 83 1023.1
20260831053018 73 192 2.0 6.0 0.00 0.00 0.00 83 1023.2
20260831052918 73 194 2.0 7.0 0.00 0.00 0.00 83 1023.4
20260831052907 73 162 2.0 7.0 0.00 0.00 0.00 83 1023.4
20260831052852 73 138 2.0 7.0 0.00 0.00 0.00 83 1023.2
20260831052617 73 220 2.0 7.0 0.00 0.00 0.00 83 1023.2
20260831052519 73 220 2.0 7.0 0.00 0.00 0.00 83 1023.4
20260831052417 73 219 2.0 7.0 0.00 0.00 0.00 83 1023.2
20260831052317 73 215 2.0 7.0 0.00 0.00 0.00 83 1023.2
20260831052219 73 186 2.0 7.0 0.00 0.00 0.00 83 1023.4
20260831052153 73 180 2.0 7.0 0.00 0.00 0.00 83 1023.4
20260831052141 73 180 2.0 7.0 0.00 0.00 0.00 83 1023.4
20260831051951 73 235 2.0 7.0 0.00 0.00 0.00 83 1023.4
20260831051940 73 179 2.0 7.0 0.00 0.00 0.00 83 1023.4
20260831051717 73 196 1.0 7.0 0.00 0.00 0.00 83 1023.4
20260831051618 73 197 2.0 7.0 0.00 0.00 0.00 83 1023.2
20260831051519 73 180 2.0 7.0 0.00 0.00 0.00 83 1023.4
20260831051418 73 209 2.0 7.0 0.00 0.00 0.00 83 1023.4
20260831051318 73 209 2.0 7.0 0.00 0.00 0.00 83 1023.4
20260831051219 73 115 2.0 7.0 0.00 0.00 0.00 83 1023.4
20260831051114 73 81 2.0 7.0 0.00 0.00 0.00 83 1023.4
20260831051045 73 211 2.0 6.0 0.00 0.00 0.00 83 1023.4
20260831051035 73 214 2.0 7.0 0.00 0.00 0.00 83 1023.4
20260831050815 73 224 2.0 6.0 0.00 0.00 0.00 83 1023.2
20260831050713 73 225 2.0 6.0 0.00 0.00 0.00 83 1023.2
20260831050615 73 155 2.0 6.0 0.00 0.00 0.00 83 1023.4
20260831050515 73 180 2.0 4.0 0.00 0.00 0.00 84 1023.4
20260831050452 73 229 2.0 8.0 0.00 0.00 0.00 84 1023.4
20260831050446 73 180 2.0 8.0 0.00 0.00 0.00 84 1023.4
20260831050442 73 194 2.0 8.0 0.00 0.00 0.00 84 1023.2
20260831050427 73 233 2.0 4.0 0.00 0.00 0.00 84 1023.4
20260831050411 73 233 2.0 8.0 0.00 0.00 0.00 84 1023.4
20260831045910 73 180 2.0 8.0 0.00 0.00 0.00 84 1023.4
20260831045810 73 191 2.0 8.0 0.00 0.00 0.00 84 1023.4
20260831045710 73 191 2.0 8.0 0.00 0.00 0.00 84 1023.4
20260831045610 73 190 2.0 8.0 0.00 0.00 0.00 84 1023.4
20260831045517 73 234 2.0 8.0 0.00 0.00 0.00 84 1023.4
20260831045410 73 154 2.0 8.0 0.00 0.00 0.00 84 1023.2
20260831045311 73 211 2.0 6.0 0.00 0.00 0.00 84 1023.2
20260831045211 73 210 2.0 6.0 0.00 0.00 0.00 84 1023.2
20260831045111 73 190 2.0 6.0 0.00 0.00 0.00 84 1023.4
20260831045012 73 190 1.0 6.0 0.00 0.00 0.00 84 1023.4
20260831044912 73 189 1.0 6.0 0.00 0.00 0.00 84 1023.4
20260831044810 73 197 1.0 6.0 0.00 0.00 0.00 84 1023.2
20260831044713 73 195 2.0 6.0 0.00 0.00 0.00 84 1023.2
20260831044612 73 195 2.0 6.0 0.00 0.00 0.00 84 1023.2
20260831044508 73 176 1.0 6.0 0.00 0.00 0.00 84 1023.1
20260831044406 73 156 1.0 6.0 0.00 0.00 0.00 84 1023.2
20260831044343 73 156 2.0 6.0 0.00 0.00 0.00 84 1023.2
20260831044329 73 156 1.0 6.0 0.00 0.00 0.00 84 1023.2
20260831044106 73 156 2.0 6.0 0.00 0.00 0.00 84 1023.4
20260831044037 73 183 2.0 6.0 0.00 0.00 0.00 84 1023.2
20260831044026 73 183 2.0 6.0 0.00 0.00 0.00 84 1023.1
20260831043805 73 183 2.0 6.0 0.00 0.00 0.00 84 1023.2
20260831043705 73 206 2.0 6.0 0.00 0.00 0.00 84 1023.2
20260831043604 73 201 2.0 5.0 0.00 0.00 0.00 84 1023.4
20260831043504 73 196 2.0 5.0 0.00 0.00 0.00 84 1023.2
20260831043405 73 194 2.0 5.0 0.00 0.00 0.00 83 1023.4
20260831043302 73 166 2.0 5.0 0.00 0.00 0.00 83 1023.4
20260831043200 73 219 2.0 5.0 0.00 0.00 0.00 84 1023.2
20260831043102 73 194 2.0 5.0 0.00 0.00 0.00 84 1023.4
20260831043000 73 213 2.0 5.0 0.00 0.00 0.00 84 1023.4
20260831042856 73 217 2.0 5.0 0.00 0.00 0.00 84 1023.4
20260831042748 73 217 2.0 5.0 0.00 0.00 0.00 84 1023.4
20260831042647 73 198 2.0 4.0 0.00 0.00 0.00 84 1023.4
20260831042546 73 198 2.0 4.0 0.00 0.00 0.00 84 1023.4
20260831042459 73 235 2.0 5.0 0.00 0.00 0.00 84 1023.4
20260831042447 73 198 2.0 4.0 0.00 0.00 0.00 84 1023.4
20260831042440 73 174 1.0 3.0 0.00 0.00 0.00 84 1023.4
20260831042435 73 174 1.0 3.0 0.00 0.00 0.00 83 1023.4
20260831042429 73 221 1.0 3.0 0.00 0.00 0.00 83 1023.2
20260831042413 73 198 2.0 4.0 0.00 0.00 0.00 84 1023.4
20260831042355 73 228 2.0 5.0 0.00 0.00 0.00 84 1023.5
20260831042214 73 235 2.0 5.0 0.00 0.00 0.00 84 1023.4
20260831042200 73 235 2.0 5.0 0.00 0.00 0.00 84 1023.4
20260831042141 73 235 2.0 5.0 0.00 0.00 0.00 84 1023.5
20260831042116 73 232 2.0 5.0 0.00 0.00 0.00 84 1023.4
20260831042059 73 204 2.0 5.0 0.00 0.00 0.00 84 1023.5
20260831042039 73 204 2.0 5.0 0.00 0.00 0.00 84 1023.4
20260831042019 73 205 1.0 5.0 0.00 0.00 0.00 84 1023.5
20260831041958 73 215 1.0 5.0 0.00 0.00 0.00 84 1023.4
20260831041822 73 174 1.0 3.0 0.00 0.00 0.00 84 1023.4
20260831041645 73 173 1.0 3.0 0.00 0.00 0.00 83 1023.4
20260831040725 73 221 1.0 3.0 0.00 0.00 0.00 83 1023.4
20260831040651 73 211 1.0 3.0 0.00 0.00 0.00 83 1023.4
20260831040643 73 221 1.0 3.0 0.00 0.00 0.00 83 1023.4
20260831040450 73 210 1.0 3.0 0.00 0.00 0.00 83 1023.4
20260831040440 73 210 1.0 3.0 0.00 0.00 0.00 83 1023.4
20260831040219 73 210 1.0 3.0 0.00 0.00 0.00 83 1023.2
20260831040118 74 227 1.0 3.0 0.00 0.00 0.00 83 1023.4
20260831040018 74 188 1.0 3.0 0.00 0.00 0.00 83 1023.2
20260831035919 74 188 1.0 3.0 0.00 0.00 0.00 83 1023.4
20260831035818 74 188 1.0 3.0 0.00 0.00 0.00 83 1023.4
20260831035719 74 208 2.0 3.0 0.00 0.00 0.00 83 1023.4
20260831035620 74 208 2.0 4.0 0.00 0.00 0.00 83 1023.2
20260831035557 74 208 2.0 4.0 0.00 0.00 0.00 83 1023.2
20260831035544 74 208 2.0 4.0 0.00 0.00 0.00 83 1023.2
20260831035318 74 166 2.0 5.0 0.00 0.00 0.00 83 1023.2
20260831035218 74 214 2.0 5.0 0.00 0.00 0.00 83 1023.2
20260831035122 74 214 2.0 5.0 0.00 0.00 0.00 83 1023.2
20260831035018 74 214 2.0 7.0 0.00 0.00 0.00 83 1023.2
20260831034918 74 200 2.0 7.0 0.00 0.00 0.00 83 1023.2
20260831034816 74 200 2.0 7.0 0.00 0.00 0.00 83 1023.2
20260831034718 74 187 2.0 7.0 0.00 0.00 0.00 83 1023.2
20260831034652 74 180 2.0 7.0 0.00 0.00 0.00 83 1023.2
20260831034640 74 180 2.0 7.0 0.00 0.00 0.00 83 1023.2
20260831034416 74 223 2.0 7.0 0.00 0.00 0.00 83 1023.2
20260831034316 74 194 2.0 7.0 0.00 0.00 0.00 83 1023.2
20260831034218 74 165 2.0 7.0 0.00 0.00 0.00 83 1023.2
20260831034116 74 220 2.0 7.0 0.00 0.00 0.00 82 1023.4
20260831034014 74 223 2.0 7.0 0.00 0.00 0.00 82 1023.4
20260831033914 74 198 2.0 7.0 0.00 0.00 0.00 82 1023.4
20260831033812 74 194 2.0 7.0 0.00 0.00 0.00 82 1023.2
20260831033709 74 219 2.0 7.0 0.00 0.00 0.00 82 1023.4
20260831033610 74 192 2.0 7.0 0.00 0.00 0.00 82 1023.4
20260831033514 74 185 2.0 7.0 0.00 0.00 0.00 82 1023.4
20260831033409 74 197 2.0 7.0 0.00 0.00 0.00 82 1023.2
20260831033309 74 192 2.0 7.0 0.00 0.00 0.00 82 1023.2
20260831033208 74 192 2.0 7.0 0.00 0.00 0.00 81 1023.2
20260831033109 74 192 2.0 7.0 0.00 0.00 0.00 81 1023.2
20260831033009 74 159 2.0 6.0 0.00 0.00 0.00 81 1023.4
20260831032909 74 192 2.0 6.0 0.00 0.00 0.00 81 1023.2
20260831032808 74 192 2.0 6.0 0.00 0.00 0.00 81 1023.4
20260831032704 74 202 2.0 6.0 0.00 0.00 0.00 81 1023.4
20260831032605 74 130 2.0 6.0 0.00 0.00 0.00 81 1023.4
20260831032503 75 220 2.0 6.0 0.00 0.00 0.00 81 1023.4
20260831032403 75 204 2.0 6.0 0.00 0.00 0.00 81 1023.4
20260831032306 75 211 2.0 6.0 0.00 0.00 0.00 81 1023.4
20260831032200 75 217 2.0 6.0 0.00 0.00 0.00 81 1023.5
20260831032059 75 273 2.0 6.0 0.00 0.00 0.00 80 1023.5
20260831032035 75 200 2.0 6.0 0.00 0.00 0.00 80 1023.5
20260831032024 75 200 2.0 6.0 0.00 0.00 0.00 80 1023.5
20260831031754 75 198 2.0 6.0 0.00 0.00 0.00 80 1023.5
20260831031653 75 186 2.0 6.0 0.00 0.00 0.00 80 1023.5
20260831031628 75 223 2.0 5.0 0.00 0.00 0.00 79 1023.6
20260831031614 75 190 2.0 6.0 0.00 0.00 0.00 80 1023.6
20260831031351 75 223 2.0 5.0 0.00 0.00 0.00 79 1023.6
20260831031251 75 223 2.0 5.0 0.00 0.00 0.00 79 1023.6
20260831031151 75 182 2.0 5.0 0.00 0.00 0.00 79 1023.6
20260831031049 76 182 2.0 5.0 0.00 0.00 0.00 79 1023.7
20260831030953 76 207 2.0 7.0 0.00 0.00 0.00 79 1023.6
20260831030848 76 207 2.0 7.0 0.00 0.00 0.00 79 1023.6
20260831030747 76 207 2.0 7.0 0.00 0.00 0.00 79 1023.7
20260831030646 76 183 2.0 7.0 0.00 0.00 0.00 78 1023.7
20260831030540 76 182 2.0 7.0 0.00 0.00 0.00 78 1023.6
20260831030440 76 263 1.0 7.0 0.00 0.00 0.00 78 1023.7
20260831030340 76 209 1.0 7.0 0.00 0.00 0.00 78 1023.6
20260831030238 76 218 2.0 7.0 0.00 0.00 0.00 78 1023.5
20260831030138 76 196 2.0 7.0 0.00 0.00 0.00 77 1023.6
20260831030036 76 251 2.0 7.0 0.00 0.00 0.00 77 1023.6
20260831025936 77 183 2.0 5.0 0.00 0.00 0.00 77 1023.6
20260831025838 77 234 2.0 5.0 0.00 0.00 0.00 77 1023.6
20260831025745 77 150 2.0 5.0 0.00 0.00 0.00 76 1023.5
20260831025734 77 234 2.0 5.0 0.00 0.00 0.00 77 1023.6
20260831025727 77 150 2.0 5.0 0.00 0.00 0.00 76 1023.6
20260831025706 77 234 2.0 5.0 0.00 0.00 0.00 76 1023.6
20260831025508 77 150 2.0 5.0 0.00 0.00 0.00 76 1023.6
20260831025234 77 137 2.0 5.0 0.00 0.00 0.00 76 1023.6
20260831025134 77 136 2.0 8.0 0.00 0.00 0.00 76 1023.6
20260831025032 77 133 2.0 8.0 0.00 0.00 0.00 76 1023.5
20260831024931 77 162 2.0 8.0 0.00 0.00 0.00 76 1023.5
20260831024828 77 162 2.0 8.0 0.00 0.00 0.00 76 1023.4
20260831024726 77 181 2.0 8.0 0.00 0.00 0.00 76 1023.5
20260831024624 77 205 2.0 8.0 0.00 0.00 0.00 76 1023.4
20260831024529 77 164 2.0 8.0 0.00 0.00 0.00 76 1023.4
20260831024431 77 164 2.0 8.0 0.00 0.00 0.00 76 1023.4
20260831024322 77 204 2.0 8.0 0.00 0.00 0.00 76 1023.4
20260831024223 77 204 2.0 8.0 0.00 0.00 0.00 76 1023.2
20260831024127 77 194 2.0 6.0 0.00 0.00 0.00 76 1023.2
20260831024118 77 138 2.0 6.0 0.00 0.00 0.00 76 1023.2
20260831024100 77 173 2.0 6.0 0.00 0.00 0.00 76 1023.2
20260831023856 77 161 2.0 6.0 0.00 0.00 0.00 76 1023.2
20260831023844 77 217 2.0 6.0 0.00 0.00 0.00 76 1023.2
20260831023617 77 211 2.0 5.0 0.00 0.00 0.00 76 1023.2
20260831023520 77 227 2.0 4.0 0.00 0.00 0.00 76 1023.2
20260831023419 77 187 2.0 6.0 0.00 0.00 0.00 75 1023.2
20260831023358 77 157 2.0 6.0 0.00 0.00 0.00 75 1023.1
20260831023345 77 184 2.0 6.0 0.00 0.00 0.00 75 1023.1
20260831023118 77 153 2.0 6.0 0.00 0.00 0.00 75 1023.1
20260831023050 77 230 2.0 6.0 0.00 0.00 0.00 75 1023.2
20260831023035 77 203 2.0 6.0 0.00 0.00 0.00 75 1023.1
20260831023012 77 215 2.0 6.0 0.00 0.00 0.00 75 1023.1
20260831022951 77 240 2.0 6.0 0.00 0.00 0.00 75 1023.1
20260831022758 77 222 2.0 6.0 0.00 0.00 0.00 75 1023.1
20260831022515 77 215 2.0 6.0 0.00 0.00 0.00 75 1023.1
20260831022421 77 162 2.0 8.0 0.00 0.00 0.00 75 1023.2
20260831022410 77 209 2.0 8.0 0.00 0.00 0.00 75 1023.0
20260831022352 77 244 2.0 8.0 0.00 0.00 0.00 75 1023.1
20260831022106 77 209 2.0 8.0 0.00 0.00 0.00 75 1023.0
20260831022009 77 168 2.0 8.0 0.00 0.00 0.00 75 1023.0
20260831021907 77 168 2.0 8.0 0.00 0.00 0.00 75 1023.0
20260831021807 77 175 2.0 8.0 0.00 0.00 0.00 75 1023.0
20260831021754 77 183 2.0 8.0 0.00 0.00 0.00 75 1023.0
20260831021737 77 184 2.0 8.0 0.00 0.00 0.00 75 1023.0
20260831021508 77 184 2.0 8.0 0.00 0.00 0.00 75 1023.0
20260831021441 77 165 2.0 6.0 0.00 0.00 0.00 75 1023.0
20260831021428 77 165 2.0 7.0 0.00 0.00 0.00 75 1023.0
20260831021204 77 198 2.0 6.0 0.00 0.00 0.00 75 1023.0
20260831021050 77 217 2.0 6.0 0.00 0.00 0.00 75 1022.9
20260831020951 77 182 2.0 7.0 0.00 0.00 0.00 75 1023.0
20260831020851 77 227 2.0 7.0 0.00 0.00 0.00 75 1023.0
20260831020825 77 236 2.0 7.0 0.00 0.00 0.00 76 1023.0
20260831020815 77 139 2.0 7.0 0.00 0.00 0.00 75 1023.0
20260831020636 77 212 2.0 8.0 0.00 0.00 0.00 76 1023.0
20260831020630 77 189 2.0 7.0 0.00 0.00 0.00 76 1023.0
20260831020625 77 189 2.0 8.0 0.00 0.00 0.00 76 1023.1
20260831020619 77 200 2.0 8.0 0.00 0.00 0.00 76 1023.0
20260831020610 77 236 2.0 7.0 0.00 0.00 0.00 76 1023.0
20260831020548 77 294 2.0 7.0 0.00 0.00 0.00 76 1023.1
20260831020424 77 203 2.0 7.0 0.00 0.00 0.00 76 1023.1
20260831020401 77 196 2.0 7.0 0.00 0.00 0.00 76 1023.1
20260831015738 77 212 2.0 8.0 0.00 0.00 0.00 76 1023.0
20260831015639 77 242 2.0 8.0 0.00 0.00 0.00 76 1023.1
20260831015548 77 183 2.0 8.0 0.00 0.00 0.00 76 1023.0
20260831015543 77 168 2.0 8.0 0.00 0.00 0.00 76 1023.0
20260831015530 77 242 2.0 8.0 0.00 0.00 0.00 76 1023.0
20260831015508 77 242 2.0 8.0 0.00 0.00 0.00 76 1023.0
20260831015124 77 167 2.0 8.0 0.00 0.00 0.00 76 1023.0
20260831015051 77 148 2.0 7.0 0.00 0.00 0.00 76 1023.1
20260831015040 77 150 2.0 7.0 0.00 0.00 0.00 76 1023.0
20260831014820 77 237 2.0 7.0 0.00 0.00 0.00 76 1023.0
20260831014719 76 172 2.0 5.0 0.00 0.00 0.00 76 1023.0
20260831014652 76 155 1.0 5.0 0.00 0.00 0.00 76 1023.0
20260831014640 76 199 2.0 5.0 0.00 0.00 0.00 76 1023.0
20260831014416 76 154 1.0 5.0 0.00 0.00 0.00 77 1023.0
20260831014316 76 202 1.0 5.0 0.00 0.00 0.00 76 1023.0
20260831014215 76 190 1.0 5.0 0.00 0.00 0.00 76 1022.9
20260831014112 76 175 1.0 5.0 0.00 0.00 0.00 77 1023.0
20260831014005 76 227 1.0 5.0 0.00 0.00 0.00 77 1022.9
20260831013906 76 145 1.0 5.0 0.00 0.00 0.00 77 1022.9
20260831013806 76 142 1.0 5.0 0.00 0.00 0.00 77 1022.9
20260831013750 76 158 1.0 5.0 0.00 0.00 0.00 77 1022.9
20260831013736 76 142 1.0 5.0 0.00 0.00 0.00 77 1023.0
20260831013502 75 158 1.0 5.0 0.00 0.00 0.00 78 1022.9
20260831013402 75 176 1.0 5.0 0.00 0.00 0.00 78 1022.9
20260831013259 75 174 1.0 5.0 0.00 0.00 0.00 78 1022.9
20260831013159 75 178 1.0 5.0 0.00 0.00 0.00 78 1022.9
20260831013057 75 180 1.0 5.0 0.00 0.00 0.00 78 1023.0
20260831012952 75 181 1.0 3.0 0.00 0.00 0.00 78 1022.9
20260831012850 75 181 1.0 3.0 0.00 0.00 0.00 78 1022.9
20260831012751 75 168 1.0 3.0 0.00 0.00 0.00 78 1022.8
20260831012651 75 202 1.0 2.0 0.00 0.00 0.00 79 1022.9
20260831012551 75 202 1.0 2.0 0.00 0.00 0.00 79 1022.8
20260831012441 75 202 1.0 4.0 0.00 0.00 0.00 79 1022.9
20260831012339 75 202 1.0 4.0 0.00 0.00 0.00 79 1022.8
20260831012244 75 208 1.0 4.0 0.00 0.00 0.00 79 1022.8
20260831012237 75 219 1.0 4.0 0.00 0.00 0.00 79 1022.9
20260831012232 76 219 1.0 6.0 0.00 0.00 0.00 79 1022.8
20260831012213 75 219 1.0 4.0 0.00 0.00 0.00 79 1022.8
20260831011830 76 219 1.0 6.0 0.00 0.00 0.00 79 1022.8
20260831011803 76 198 1.0 6.0 0.00 0.00 0.00 79 1022.7
20260831011753 76 249 1.0 6.0 0.00 0.00 0.00 79 1022.7
20260831011530 76 198 1.0 6.0 0.00 0.00 0.00 78 1022.7
20260831011429 76 188 1.0 6.0 0.00 0.00 0.00 79 1022.7
20260831011328 76 211 1.0 6.0 0.00 0.00 0.00 79 1022.7
20260831011228 76 211 1.0 6.0 0.00 0.00 0.00 79 1022.7
20260831011127 76 211 1.0 6.0 0.00 0.00 0.00 78 1022.7
20260831011025 76 184 1.0 4.0 0.00 0.00 0.00 78 1022.6
20260831010947 76 184 1.0 4.0 0.00 0.00 0.00 78 1022.6
20260831010936 76 184 1.0 4.0 0.00 0.00 0.00 78 1022.6
20260831010754 76 186 1.0 4.0 0.00 0.00 0.00 78 1022.6
20260831010743 76 184 1.0 4.0 0.00 0.00 0.00 78 1022.6
20260831010518 76 257 1.0 4.0 0.00 0.00 0.00 78 1022.6
20260831010409 76 198 1.0 4.0 0.00 0.00 0.00 78 1022.5
20260831010307 76 199 1.0 4.0 0.00 0.00 0.00 78 1022.5
20260831010209 76 221 1.0 4.0 0.00 0.00 0.00 78 1022.5
20260831010108 76 253 1.0 4.0 0.00 0.00 0.00 77 1022.5
20260831010009 76 185 1.0 4.0 0.00 0.00 0.00 77 1022.5
20260831005906 76 185 1.0 4.0 0.00 0.00 0.00 77 1022.5
20260831005807 76 185 1.0 4.0 0.00 0.00 0.00 77 1022.4
20260831005707 76 185 1.0 4.0 0.00 0.00 0.00 77 1022.4
20260831005606 76 210 1.0 4.0 0.00 0.00 0.00 77 1022.4
20260831005503 76 210 1.0 4.0 0.00 0.00 0.00 77 1022.4
20260831005427 76 192 0.0 3.0 0.00 0.00 0.00 77 1022.4
20260831005414 76 209 1.0 4.0 0.00 0.00 0.00 77 1022.4
20260831005153 76 186 0.0 3.0 0.00 0.00 0.00 77 1022.5
20260831005051 76 197 1.0 5.0 0.00 0.00 0.00 77 1022.4
20260831004949 76 195 1.0 5.0 0.00 0.00 0.00 77 1022.4
20260831004917 76 201 1.0 5.0 0.00 0.00 0.00 77 1022.4
20260831004905 76 195 1.0 5.0 0.00 0.00 0.00 77 1022.4
20260831004641 76 150 0.0 5.0 0.00 0.00 0.00 77 1022.4
20260831004616 76 150 1.0 5.0 0.00 0.00 0.00 77 1022.4
20260831004605 76 150 1.0 5.0 0.00 0.00 0.00 77 1022.4
20260831004353 76 150 1.0 5.0 0.00 0.00 0.00 77 1022.4
20260831004341 76 150 1.0 5.0 0.00 0.00 0.00 77 1022.4
20260831004335 76 92 1.0 5.0 0.00 0.00 0.00 76 1022.4
20260831004315 76 150 1.0 5.0 0.00 0.00 0.00 77 1022.4
20260831003937 76 207 0.0 5.0 0.00 0.00 0.00 76 1022.4
20260831003829 76 186 1.0 5.0 0.00 0.00 0.00 76 1022.5
20260831003758 76 186 1.0 5.0 0.00 0.00 0.00 76 1022.5
20260831003748 76 186 1.0 5.0 0.00 0.00 0.00 76 1022.4
20260831003527 76 185 1.0 4.0 0.00 0.00 0.00 76 1022.4
20260831003427 76 188 1.0 4.0 0.00 0.00 0.00 76 1022.5
20260831003321 76 188 1.0 4.0 0.00 0.00 0.00 76 1022.5
20260831003124 77 188 1.0 4.0 0.00 0.00 0.00 76 1022.4
20260831003023 76 188 1.0 4.0 0.00 0.00 0.00 76 1022.4
20260831002921 77 188 1.0 4.0 0.00 0.00 0.00 76 1022.4
20260831002814 76 209 1.0 4.0 0.00 0.00 0.00 76 1022.4
20260831002713 77 153 1.0 2.0 0.00 0.00 0.00 76 1022.4
20260831002613 77 150 1.0 2.0 0.00 0.00 0.00 76 1022.5
20260831002514 77 150 1.0 2.0 0.00 0.00 0.00 76 1022.4
20260831002415 77 136 1.0 2.0 0.00 0.00 0.00 75 1022.4
20260831002300 77 36 1.0 2.0 0.00 0.00 0.00 76 1022.4
20260831002235 77 5 1.0 2.0 0.00 0.00 0.00 75 1022.4
20260831002224 77 37 1.0 2.0 0.00 0.00 0.00 75 1022.5
20260831002001 77 47 1.0 2.0 0.00 0.00 0.00 75 1022.4
20260831001901 77 260 1.0 2.0 0.00 0.00 0.00 75 1022.2
20260831001801 77 260 0.0 2.0 0.00 0.00 0.00 75 1022.3
20260831001732 77 265 0.0 3.0 0.00 0.00 0.00 75 1022.4
20260831001720 77 265 1.0 2.0 0.00 0.00 0.00 75 1022.3
20260831001455 77 184 0.0 3.0 0.00 0.00 0.00 75 1022.3
20260831001355 77 183 1.0 3.0 0.00 0.00 0.00 75 1022.4
20260831001254 77 183 0.0 3.0 0.00 0.00 0.00 75 1022.3
20260831001153 77 182 0.0 3.0 0.00 0.00 0.00 75 1022.4
20260831001054 77 182 0.0 3.0 0.00 0.00 0.00 75 1022.3
20260831001046 77 181 0.0 3.0 0.00 0.00 0.00 75 1022.5
20260831001024 77 195 0.0 3.0 0.00 0.00 0.00 75 1022.4
20260831001013 77 181 0.0 3.0 0.00 0.00 0.00 75 1022.5
20260831000752 77 195 0.0 3.0 0.00 0.00 0.00 75 1022.4
20260831000650 77 196 0.0 3.0 0.00 0.00 0.00 75 1022.4
20260831000551 77 191 0.0 3.0 0.00 0.00 0.00 75 1022.4
20260831000448 77 191 0.0 3.0 0.00 0.00 0.00 75 1022.5
20260831000348 77 189 0.0 3.0 0.00 0.00 0.00 76 1022.4
20260831000315 77 117 0.0 3.0 0.00 0.00 0.00 75 1022.5
20260831000310 77 269 0.0 3.0 0.00 0.00 0.00 76 1022.5
20260831000043 77 117 0.0 3.0 0.00 0.00 0.00 75 1022.5
20260831000005 78 174 1.0 4.0 0.00 0.00 0.00 75 1022.5
20260830235959 78 224 1.0 3.0 0.00 0.00 0.00 76 1022.5
20260830235955 78 224 1.0 4.0 0.00 0.00 0.00 76 1022.6
20260830235943 78 224 0.0 3.0 0.00 0.00 0.00 76 1022.5
20260830235925 78 224 1.0 3.0 0.00 0.00 0.00 76 1022.5
20260830235745 78 224 1.0 4.0 0.00 0.00 0.00 76 1022.5
20260830235410 78 198 1.0 4.0 0.00 0.00 0.00 75 1022.5
20260830235401 78 174 1.0 4.0 0.00 0.00 0.00 75 1022.5
20260830235135 78 198 1.0 4.0 0.00 0.00 0.00 75 1022.6
20260830235050 78 227 0.0 4.0 0.00 0.00 0.00 74 1022.5
20260830235045 78 191 0.0 4.0 0.00 0.00 0.00 75 1022.5
20260830235032 78 198 1.0 4.0 0.00 0.00 0.00 75 1022.5
20260830235009 78 188 1.0 4.0 0.00 0.00 0.00 74 1022.6
20260830234630 78 168 0.0 4.0 0.00 0.00 0.00 75 1022.5
20260830234525 78 168 0.0 4.0 0.00 0.00 0.00 74 1022.5
20260830234427 78 160 0.0 3.0 0.00 0.00 0.00 74 1022.5
20260830234326 78 160 1.0 3.0 0.00 0.00 0.00 75 1022.6
20260830234305 79 159 1.0 3.0 0.00 0.00 0.00 74 1022.6
20260830234252 79 160 1.0 3.0 0.00 0.00 0.00 74 1022.5
20260830234015 79 192 1.0 3.0 0.00 0.00 0.00 74 1022.5
20260830233916 79 198 1.0 2.0 0.00 0.00 0.00 74 1022.5
20260830233849 79 198 1.0 3.0 0.00 0.00 0.00 74 1022.5
20260830233839 79 198 1.0 2.0 0.00 0.00 0.00 74 1022.5
20260830233616 79 198 1.0 3.0 0.00 0.00 0.00 74 1022.5
20260830233518 79 197 1.0 3.0 0.00 0.00 0.00 73 1022.5
20260830233414 79 197 1.0 3.0 0.00 0.00 0.00 73 1022.5
20260830233314 79 197 1.0 3.0 0.00 0.00 0.00 74 1022.5
20260830233218 79 201 1.0 3.0 0.00 0.00 0.00 74 1022.5
20260830233113 80 200 1.0 3.0 0.00 0.00 0.00 73 1022.5
20260830233045 80 215 1.0 3.0 0.00 0.00 0.00 73 1022.6
20260830233038 80 215 1.0 3.0 0.00 0.00 0.00 73 1022.5
20260830232811 80 216 1.0 3.0 0.00 0.00 0.00 72 1022.5
20260830232737 80 200 1.0 4.0 0.00 0.00 0.00 72 1022.5
20260830232730 80 196 1.0 3.0 0.00 0.00 0.00 72 1022.5
20260830232507 80 200 1.0 4.0 0.00 0.00 0.00 72 1022.5
20260830232433 80 200 1.0 4.0 0.00 0.00 0.00 72 1022.5
20260830232425 80 200 1.0 4.0 0.00 0.00 0.00 72 1022.4
20260830232206 80 200 1.0 4.0 0.00 0.00 0.00 71 1022.6
20260830232104 80 193 1.0 4.0 0.00 0.00 0.00 72 1022.5
20260830232004 80 190 1.0 4.0 0.00 0.00 0.00 72 1022.6
20260830231903 80 174 1.0 4.0 0.00 0.00 0.00 72 1022.6
20260830231827 80 212 1.0 5.0 0.00 0.00 0.00 71 1022.6
20260830231815 80 216 1.0 5.0 0.00 0.00 0.00 72 1022.5
20260830231556 80 197 1.0 5.0 0.00 0.00 0.00 70 1022.6
20260830231456 80 186 1.0 5.0 0.00 0.00 0.00 70 1022.6
20260830231357 81 190 1.0 5.0 0.00 0.00 0.00 70 1022.6
20260830231257 81 187 1.0 5.0 0.00 0.00 0.00 70 1022.6
20260830231154 81 244 1.0 5.0 0.00 0.00 0.00 71 1022.6
20260830231056 81 209 1.0 5.0 0.00 0.00 0.00 71 1022.6
20260830231047 81 209 1.0 6.0 0.00 0.00 0.00 71 1022.6
20260830231040 81 165 1.0 6.0 0.00 0.00 0.00 70 1022.6
20260830231024 81 209 1.0 6.0 0.00 0.00 0.00 70 1022.6
20260830230718 81 221 1.0 6.0 0.00 0.00 0.00 69 1022.6
20260830230703 81 165 1.0 6.0 0.00 0.00 0.00 70 1022.6
20260830230440 81 222 1.0 6.0 0.00 0.00 0.00 70 1022.6
20260830230341 81 235 1.0 6.0 0.00 0.00 0.00 70 1022.6
20260830230238 81 232 1.0 6.0 0.00 0.00 0.00 69 1022.6
20260830230204 81 236 1.0 7.0 0.00 0.00 0.00 68 1022.6
20260830230158 82 135 1.0 7.0 0.00 0.00 0.00 68 1022.7
20260830230144 81 237 1.0 6.0 0.00 0.00 0.00 68 1022.7
20260830230118 81 186 1.0 7.0 0.00 0.00 0.00 69 1022.7
20260830225732 82 135 2.0 7.0 0.00 0.00 0.00 68 1022.7
20260830225638 82 131 2.0 7.0 0.00 0.00 0.00 68 1022.6
20260830225531 82 126 2.0 7.0 0.00 0.00 0.00 69 1022.7
20260830225432 82 192 2.0 7.0 0.00 0.00 0.00 68 1022.6
20260830225332 82 229 2.0 7.0 0.00 0.00 0.00 68 1022.6
20260830225232 82 184 2.0 7.0 0.00 0.00 0.00 68 1022.6
20260830225204 82 140 2.0 7.0 0.00 0.00 0.00 68 1022.6
20260830225152 82 218 2.0 7.0 0.00 0.00 0.00 69 1022.6
20260830224932 82 138 2.0 7.0 0.00 0.00 0.00 67 1022.6
20260830224834 82 210 2.0 7.0 0.00 0.00 0.00 67 1022.6
20260830224732 82 209 2.0 7.0 0.00 0.00 0.00 67 1022.6
20260830224706 82 227 1.0 6.0 0.00 0.00 0.00 66 1022.6
20260830224654 82 175 1.0 6.0 0.00 0.00 0.00 67 1022.6
20260830224433 82 178 1.0 6.0 0.00 0.00 0.00 66 1022.6
20260830224327 82 203 1.0 6.0 0.00 0.00 0.00 67 1022.6
20260830224228 82 202 1.0 6.0 0.00 0.00 0.00 66 1022.6
20260830224127 82 236 1.0 6.0 0.00 0.00 0.00 67 1022.6
20260830224027 82 213 1.0 5.0 0.00 0.00 0.00 68 1022.6
20260830223925 82 219 1.0 5.0 0.00 0.00 0.00 67 1022.6
20260830223827 83 189 1.0 5.0 0.00 0.00 0.00 67 1022.6
20260830223726 83 189 1.0 5.0 0.00 0.00 0.00 67 1022.7
20260830223625 83 192 1.0 5.0 0.00 0.00 0.00 67 1022.6
20260830223527 83 192 1.0 5.0 0.00 0.00 0.00 67 1022.6
20260830223426 83 204 2.0 5.0 0.00 0.00 0.00 67 1022.7
20260830223327 83 204 2.0 8.0 0.00 0.00 0.00 66 1022.6
20260830223225 83 204 2.0 8.0 0.00 0.00 0.00 66 1022.7
20260830223125 83 204 2.0 8.0 0.00 0.00 0.00 66 1022.6
20260830223027 83 198 2.0 8.0 0.00 0.00 0.00 65 1022.7
20260830222924 83 210 1.0 8.0 0.00 0.00 0.00 65 1022.7
20260830222826 83 197 1.0 8.0 0.00 0.00 0.00 65 1022.7
20260830222725 83 196 1.0 8.0 0.00 0.00 0.00 65 1022.6
20260830222700 83 196 1.0 8.0 0.00 0.00 0.00 64 1022.6
20260830222649 83 196 1.0 8.0 0.00 0.00 0.00 65 1022.6
20260830222422 83 269 1.0 8.0 0.00 0.00 0.00 64 1022.6
20260830222321 83 243 1.0 5.0 0.00 0.00 0.00 64 1022.7
20260830222221 83 263 1.0 5.0 0.00 0.00 0.00 65 1022.6
20260830222123 83 265 1.0 5.0 0.00 0.00 0.00 64 1022.6
20260830222021 83 265 1.0 5.0 0.00 0.00 0.00 64 1022.6
20260830221950 83 228 2.0 6.0 0.00 0.00 0.00 64 1022.6
20260830221941 83 228 1.0 6.0 0.00 0.00 0.00 64 1022.6
20260830221717 83 228 2.0 6.0 0.00 0.00 0.00 64 1022.5
20260830221616 83 239 1.0 6.0 0.00 0.00 0.00 64 1022.6
20260830221517 84 167 1.0 6.0 0.00 0.00 0.00 64 1022.5
20260830221448 84 203 1.0 6.0 0.00 0.00 0.00 63 1022.6
20260830221437 84 154 1.0 6.0 0.00 0.00 0.00 63 1022.6
20260830221218 84 203 1.0 6.0 0.00 0.00 0.00 63 1022.6
20260830221117 84 203 1.0 6.0 0.00 0.00 0.00 63 1022.6
20260830221050 84 207 1.0 4.0 0.00 0.00 0.00 63 1022.6
20260830221037 84 203 1.0 6.0 0.00 0.00 0.00 63 1022.6
20260830220817 84 207 1.0 4.0 0.00 0.00 0.00 63 1022.6
20260830220719 84 206 1.0 4.0 0.00 0.00 0.00 63 1022.6
20260830220618 84 121 1.0 4.0 0.00 0.00 0.00 64 1022.6
20260830220519 84 117 1.0 4.0 0.00 0.00 0.00 63 1022.5
20260830220417 84 265 1.0 4.0 0.00 0.00 0.00 63 1022.5
20260830220317 84 231 1.0 5.0 0.00 0.00 0.00 64 1022.5
20260830220217 84 238 1.0 5.0 0.00 0.00 0.00 63 1022.5
20260830220117 84 192 1.0 5.0 0.00 0.00 0.00 63 1022.5
20260830220018 85 199 1.0 6.0 0.00 0.00 0.00 62 1022.5
20260830215923 85 208 1.0 6.0 0.00 0.00 0.00 62 1022.5
20260830215817 85 208 1.0 6.0 0.00 0.00 0.00 62 1022.5
20260830215750 85 208 1.0 6.0 0.00 0.00 0.00 62 1022.5
20260830215740 85 208 1.0 6.0 0.00 0.00 0.00 62 1022.5
20260830215517 85 211 1.0 6.0 0.00 0.00 0.00 62 1022.5
20260830215417 85 208 1.0 6.0 0.00 0.00 0.00 61 1022.4
20260830215316 85 30 1.0 6.0 0.00 0.00 0.00 61 1022.5
20260830215219 85 30 1.0 6.0 0.00 0.00 0.00 62 1022.6
20260830215105 85 30 1.0 6.0 0.00 0.00 0.00 61 1022.5
20260830215037 86 172 1.0 5.0 0.00 0.00 0.00 60 1022.6
20260830215027 86 213 1.0 6.0 0.00 0.00 0.00 60 1022.5
20260830214805 86 197 2.0 7.0 0.00 0.00 0.00 60 1022.5
20260830214707 86 184 1.0 7.0 0.00 0.00 0.00 59 1022.6
20260830214606 86 186 1.0 7.0 0.00 0.00 0.00 60 1022.6
20260830214506 86 225 1.0 7.0 0.00 0.00 0.00 60 1022.5
20260830214405 86 225 2.0 7.0 0.00 0.00 0.00 60 1022.5
20260830214306 87 189 2.0 7.0 0.00 0.00 0.00 59 1022.5
20260830214205 87 177 2.0 7.0 0.00 0.00 0.00 59 1022.5
20260830214141 87 258 2.0 7.0 0.00 0.00 0.00 59 1022.5
20260830214131 87 177 2.0 7.0 0.00 0.00 0.00 59 1022.5
20260830213857 87 180 2.0 7.0 0.00 0.00 0.00 59 1022.5
20260830213759 87 150 2.0 7.0 0.00 0.00 0.00 60 1022.6
20260830213715 87 191 1.0 7.0 0.00 0.00 0.00 59 1022.6
20260830213702 87 191 2.0 7.0 0.00 0.00 0.00 60 1022.6
20260830213637 87 191 2.0 7.0 0.00 0.00 0.00 58 1022.6
20260830213515 87 191 2.0 7.0 0.00 0.00 0.00 60 1022.6
20260830213253 87 267 1.0 7.0 0.00 0.00 0.00 59 1022.5
20260830213227 87 294 1.0 7.0 0.00 0.00 0.00 60 1022.5
20260830213216 87 294 2.0 7.0 0.00 0.00 0.00 60 1022.5
20260830212951 87 207 1.0 7.0 0.00 0.00 0.00 60 1022.5
20260830212853 87 173 1.0 7.0 0.00 0.00 0.00 60 1022.5
20260830212751 87 173 1.0 7.0 0.00 0.00 0.00 60 1022.5
20260830212651 87 173 1.0 7.0 0.00 0.00 0.00 59 1022.5
20260830212623 87 97 1.0 7.0 0.00 0.00 0.00 59 1022.5
20260830212612 87 98 1.0 7.0 0.00 0.00 0.00 60 1022.6
20260830212348 87 94 1.0 4.0 0.00 0.00 0.00 59 1022.5
20260830212319 87 137 2.0 7.0 0.00 0.00 0.00 59 1022.6
20260830212309 87 93 1.0 7.0 0.00 0.00 0.00 59 1022.6
20260830212045 88 137 2.0 7.0 0.00 0.00 0.00 58 1022.6
20260830211945 88 187 1.0 7.0 0.00 0.00 0.00 58 1022.6
20260830211845 88 195 1.0 7.0 0.00 0.00 0.00 58 1022.6
20260830211745 88 183 1.0 7.0 0.00 0.00 0.00 58 1022.6
20260830211644 88 183 1.0 7.0 0.00 0.00 0.00 58 1022.6
20260830211543 88 183 1.0 7.0 0.00 0.00 0.00 57 1022.7
20260830211443 88 183 1.0 7.0 0.00 0.00 0.00 57 1022.6
20260830211343 88 183 1.0 7.0 0.00 0.00 0.00 57 1022.6
20260830211321 88 144 1.0 6.0 0.00 0.00 0.00 57 1022.6
20260830211308 88 144 1.0 6.0 0.00 0.00 0.00 57 1022.6
20260830211041 87 151 1.0 6.0 0.00 0.00 0.00 57 1022.6
20260830210943 87 151 1.0 6.0 0.00 0.00 0.00 57 1022.6
20260830210841 87 151 2.0 6.0 0.00 0.00 0.00 57 1022.6
20260830210812 87 152 2.0 6.0 0.00 0.00 0.00 58 1022.7
20260830210801 87 151 2.0 6.0 0.00 0.00 0.00 58 1022.6
20260830210537 87 213 2.0 6.0 0.00 0.00 0.00 56 1022.7
20260830210437 87 234 2.0 6.0 0.00 0.00 0.00 58 1022.7
20260830210333 87 134 2.0 6.0 0.00 0.00 0.00 58 1022.7
20260830210231 87 168 2.0 6.0 0.00 0.00 0.00 57 1022.6
20260830210131 87 235 2.0 6.0 0.00 0.00 0.00 57 1022.7
20260830210029 87 222 2.0 7.0 0.00 0.00 0.00 56 1022.7
20260830205929 87 222 2.0 7.0 0.00 0.00 0.00 57 1022.7
20260830205832 87 203 2.0 7.0 0.00 0.00 0.00 56 1022.7
20260830205727 87 202 2.0 7.0 0.00 0.00 0.00 57 1022.7
20260830205626 87 221 2.0 7.0 0.00 0.00 0.00 58 1022.7
20260830205524 88 217 2.0 7.0 0.00 0.00 0.00 58 1022.7
20260830205424 88 183 2.0 7.0 0.00 0.00 0.00 58 1022.7
20260830205321 88 202 2.0 7.0 0.00 0.00 0.00 58 1022.7
20260830205221 88 203 2.0 7.0 0.00 0.00 0.00 57 1022.8
20260830205121 88 269 2.0 6.0 0.00 0.00 0.00 57 1022.8
20260830205022 88 164 2.0 6.0 0.00 0.00 0.00 57 1022.7
20260830204919 88 200 2.0 6.0 0.00 0.00 0.00 58 1022.7
20260830204820 88 187 2.0 6.0 0.00 0.00 0.00 58 1022.7
20260830204718 88 187 1.0 6.0 0.00 0.00 0.00 58 1022.7
20260830204624 88 186 1.0 6.0 0.00 0.00 0.00 58 1022.7
20260830204518 88 240 1.0 6.0 0.00 0.00 0.00 59 1022.8
20260830204418 88 186 1.0 5.0 0.00 0.00 0.00 59 1022.8
20260830204318 88 234 1.0 5.0 0.00 0.00 0.00 59 1022.8
20260830204221 88 194 1.0 5.0 0.00 0.00 0.00 60 1022.9
20260830204121 88 194 1.0 5.0 0.00 0.00 0.00 60 1022.9
20260830204054 87 191 1.0 5.0 0.00 0.00 0.00 60 1022.9
20260830204042 88 191 1.0 5.0 0.00 0.00 0.00 60 1022.9
20260830203818 87 216 1.0 5.0 0.00 0.00 0.00 59 1022.8
20260830203723 87 201 1.0 5.0 0.00 0.00 0.00 59 1022.8
20260830203657 87 202 1.0 6.0 0.00 0.00 0.00 59 1022.8
20260830203642 87 201 1.0 5.0 0.00 0.00 0.00 59 1022.8
20260830203500 87 97 1.0 6.0 0.00 0.00 0.00 57 1022.9
20260830203446 87 174 1.0 6.0 0.00 0.00 0.00 58 1022.8
20260830203218 87 97 1.0 6.0 0.00 0.00 0.00 58 1022.9
20260830203148 87 119 1.0 6.0 0.00 0.00 0.00 58 1022.8
20260830203136 87 96 1.0 6.0 0.00 0.00 0.00 59 1022.8
20260830203112 87 120 1.0 6.0 0.00 0.00 0.00 58 1022.8
20260830202944 87 119 1.0 6.0 0.00 0.00 0.00 58 1022.8
20260830202719 87 148 2.0 6.0 0.00 0.00 0.00 60 1022.8
20260830202620 87 148 2.0 6.0 0.00 0.00 0.00 61 1022.9
20260830202521 87 148 2.0 6.0 0.00 0.00 0.00 59 1022.9
20260830202415 87 146 2.0 6.0 0.00 0.00 0.00 60 1022.9
20260830202321 87 207 2.0 6.0 0.00 0.00 0.00 61 1022.9
20260830202228 88 211 2.0 6.0 0.00 0.00 0.00 60 1023.0
20260830202216 87 207 2.0 6.0 0.00 0.00 0.00 60 1023.0
20260830202207 87 154 2.0 6.0 0.00 0.00 0.00 60 1023.1
20260830202202 88 179 2.0 6.0 0.00 0.00 0.00 59 1023.1
20260830202148 87 207 2.0 6.0 0.00 0.00 0.00 58 1023.1
20260830202121 87 154 2.0 6.0 0.00 0.00 0.00 59 1023.0
20260830201937 87 180 2.0 6.0 0.00 0.00 0.00 59 1023.0
20260830201637 88 197 2.0 6.0 0.00 0.00 0.00 59 1023.0
20260830201443 88 198 2.0 7.0 0.00 0.00 0.00 60 1023.0
20260830201433 88 196 2.0 6.0 0.00 0.00 0.00 59 1023.1
20260830201206 88 178 2.0 9.0 0.00 0.00 0.00 59 1023.0
20260830201102 88 176 3.0 9.0 0.00 0.00 0.00 59 1023.1
20260830200959 88 176 3.0 9.0 0.00 0.00 0.00 58 1023.0
20260830200854 88 176 3.0 9.0 0.00 0.00 0.00 58 1023.1
20260830200756 88 207 3.0 9.0 0.00 0.00 0.00 57 1023.1
20260830200655 88 205 3.0 9.0 0.00 0.00 0.00 59 1023.1
20260830200556 88 270 3.0 9.0 0.00 0.00 0.00 58 1023.1
20260830200447 88 264 3.0 9.0 0.00 0.00 0.00 58 1023.1
20260830200345 88 269 3.0 9.0 0.00 0.00 0.00 58 1023.1
20260830200249 88 240 2.0 9.0 0.00 0.00 0.00 58 1023.1
20260830200147 88 190 2.0 8.0 0.00 0.00 0.00 58 1023.2
20260830200049 88 206 2.0 7.0 0.00 0.00 0.00 59 1023.1
20260830200015 88 277 2.0 7.0 0.00 0.00 0.00 58 1023.2
20260830195957 88 207 2.0 7.0 0.00 0.00 0.00 58 1023.1
20260830195736 87 175 2.0 7.0 0.00 0.00 0.00 58 1023.2
20260830195712 87 225 2.0 7.0 0.00 0.00 0.00 60 1023.2
20260830195701 87 120 2.0 7.0 0.00 0.00 0.00 58 1023.2
20260830195435 87 241 2.0 9.0 0.00 0.00 0.00 57 1023.2
20260830195338 87 238 2.0 9.0 0.00 0.00 0.00 60 1023.4
20260830195311 87 182 2.0 9.0 0.00 0.00 0.00 59 1023.5
20260830195253 87 217 2.0 9.0 0.00 0.00 0.00 59 1023.5
20260830195034 87 173 2.0 9.0 0.00 0.00 0.00 59 1023.5
20260830194917 87 233 2.0 9.0 0.00 0.00 0.00 59 1023.5
20260830194818 87 232 2.0 9.0 0.00 0.00 0.00 58 1023.5
20260830194716 87 192 2.0 9.0 0.00 0.00 0.00 57 1023.5
20260830194618 87 192 2.0 9.0 0.00 0.00 0.00 58 1023.6
20260830194517 87 166 2.0 9.0 0.00 0.00 0.00 59 1023.6
20260830194414 87 203 2.0 9.0 0.00 0.00 0.00 60 1023.6
20260830194311 87 165 2.0 9.0 0.00 0.00 0.00 60 1023.6
20260830194212 87 165 2.0 10.0 0.00 0.00 0.00 59 1023.6
20260830194112 87 202 2.0 10.0 0.00 0.00 0.00 60 1023.7
20260830194012 87 244 2.0 10.0 0.00 0.00 0.00 60 1023.7
20260830193910 87 295 2.0 10.0 0.00 0.00 0.00 61 1023.7
20260830193809 87 184 3.0 10.0 0.00 0.00 0.00 61 1023.7
20260830193709 87 184 3.0 10.0 0.00 0.00 0.00 61 1023.7
20260830193607 87 184 2.0 10.0 0.00 0.00 0.00 60 1023.7
20260830193506 87 196 3.0 10.0 0.00 0.00 0.00 61 1023.7
20260830193359 86 311 3.0 10.0 0.00 0.00 0.00 62 1023.7
20260830193349 86 258 3.0 10.0 0.00 0.00 0.00 62 1023.8
20260830193344 85 229 3.0 10.0 0.00 0.00 0.00 63 1023.8
20260830193339 86 229 3.0 10.0 0.00 0.00 0.00 62 1023.8
20260830193334 86 227 3.0 10.0 0.00 0.00 0.00 62 1023.7
20260830193322 86 206 3.0 10.0 0.00 0.00 0.00 62 1023.7
20260830193301 86 219 3.0 10.0 0.00 0.00 0.00 62 1023.7
20260830192856 86 203 3.0 10.0 0.00 0.00 0.00 63 1023.7
20260830192849 85 195 3.0 10.0 0.00 0.00 0.00 63 1023.9
20260830192829 86 262 3.0 10.0 0.00 0.00 0.00 63 1023.8
20260830192650 85 229 3.0 10.0 0.00 0.00 0.00 61 1023.8
20260830192525 85 202 3.0 10.0 0.00 0.00 0.00 63 1023.8
20260830192143 85 228 2.0 9.0 0.00 0.00 0.00 65 1023.8
20260830192044 85 183 2.0 9.0 0.00 0.00 0.00 65 1023.9
20260830191944 85 214 2.0 9.0 0.00 0.00 0.00 64 1024.0
20260830191910 85 105 2.0 6.0 0.00 0.00 0.00 63 1024.0
20260830191856 85 99 1.0 5.0 0.00 0.00 0.00 63 1024.0
20260830191634 85 190 2.0 6.0 0.00 0.00 0.00 63 1024.0
20260830191531 85 190 2.0 6.0 0.00 0.00 0.00 62 1024.0
20260830191432 86 200 2.0 6.0 0.00 0.00 0.00 62 1024.1
20260830191326 86 200 2.0 6.0 0.00 0.00 0.00 61 1024.1
20260830191223 86 239 2.0 7.0 0.00 0.00 0.00 61 1024.0
20260830191124 87 239 3.0 9.0 0.00 0.00 0.00 61 1024.0
20260830191023 87 239 3.0 9.0 0.00 0.00 0.00 60 1024.1
20260830190923 87 239 3.0 9.0 0.00 0.00 0.00 61 1024.0
20260830190848 87 238 3.0 9.0 0.00 0.00 0.00 61 1024.1
20260830190839 87 239 3.0 9.0 0.00 0.00 0.00 61 1024.1
20260830190701 87 108 3.0 9.0 0.00 0.00 0.00 61 1024.0
20260830190645 87 130 3.0 9.0 0.00 0.00 0.00 61 1024.0
20260830190418 87 153 3.0 9.0 0.00 0.00 0.00 62 1024.0
20260830190317 87 155 3.0 9.0 0.00 0.00 0.00 60 1024.0
20260830190250 87 187 2.0 9.0 0.00 0.00 0.00 60 1024.0
20260830190238 87 231 3.0 9.0 0.00 0.00 0.00 60 1024.0
20260830190013 87 193 2.0 7.0 0.00 0.00 0.00 60 1024.0
20260830185914 87 138 2.0 7.0 0.00 0.00 0.00 60 1024.0
20260830185813 87 211 2.0 7.0 0.00 0.00 0.00 60 1024.0
20260830185713 87 198 2.0 10.0 0.00 0.00 0.00 60 1024.0
20260830185612 87 214 2.0 10.0 0.00 0.00 0.00 61 1024.1
20260830185513 87 97 2.0 10.0 0.00 0.00 0.00 61 1024.0
20260830185454 87 94 2.0 10.0 0.00 0.00 0.00 61 1023.9
20260830185442 87 97 2.0 10.0 0.00 0.00 0.00 61 1024.0
20260830185246 87 222 3.0 10.0 0.00 0.00 0.00 60 1024.0
20260830185235 87 94 3.0 10.0 0.00 0.00 0.00 61 1024.0
20260830185010 87 225 3.0 10.0 0.00 0.00 0.00 61 1024.0
20260830184911 87 182 3.0 10.0 0.00 0.00 0.00 62 1024.0
20260830184812 87 174 2.0 10.0 0.00 0.00 0.00 61 1023.9
20260830184709 86 165 3.0 10.0 0.00 0.00 0.00 62 1024.0
20260830184644 86 153 3.0 8.0 0.00 0.00 0.00 62 1024.0
20260830184631 86 237 3.0 7.0 0.00 0.00 0.00 61 1024.0
20260830184410 86 150 3.0 8.0 0.00 0.00 0.00 62 1024.0
20260830184308 87 218 3.0 8.0 0.00 0.00 0.00 61 1024.0
20260830184209 86 207 3.0 9.0 0.00 0.00 0.00 63 1024.0
20260830184110 86 180 3.0 9.0 0.00 0.00 0.00 63 1024.0
20260830184009 86 188 3.0 9.0 0.00 0.00 0.00 63 1024.0
20260830183910 86 182 3.0 9.0 0.00 0.00 0.00 62 1024.0
20260830183808 86 123 3.0 9.0 0.00 0.00 0.00 62 1024.0
20260830183708 86 196 3.0 9.0 0.00 0.00 0.00 63 1024.0
20260830183606 86 198 3.0 9.0 0.00 0.00 0.00 62 1024.0
20260830183553 86 264 3.0 9.0 0.00 0.00 0.00 61 1024.1
20260830183539 86 243 3.0 9.0 0.00 0.00 0.00 62 1024.0
20260830183303 86 221 2.0 9.0 0.00 0.00 0.00 64 1024.1
20260830183236 86 146 2.0 8.0 0.00 0.00 0.00 63 1024.2
20260830183225 86 228 2.0 8.0 0.00 0.00 0.00 64 1024.1
20260830183042 86 277 2.0 8.0 0.00 0.00 0.00 64 1024.2
20260830183030 86 239 2.0 8.0 0.00 0.00 0.00 62 1024.1
20260830182759 86 279 2.0 8.0 0.00 0.00 0.00 64 1024.2
20260830182657 86 224 2.0 8.0 0.00 0.00 0.00 65 1024.2
20260830182557 86 128 3.0 8.0 0.00 0.00 0.00 64 1024.3
20260830182456 86 225 3.0 8.0 0.00 0.00 0.00 64 1024.3
20260830182439 86 217 3.0 8.0 0.00 0.00 0.00 63 1024.3
20260830182424 86 203 3.0 8.0 0.00 0.00 0.00 64 1024.3
20260830182151 86 233 3.0 8.0 0.00 0.00 0.00 64 1024.4
20260830182053 86 234 3.0 8.0 0.00 0.00 0.00 64 1024.4
20260830181951 86 227 3.0 8.0 0.00 0.00 0.00 63 1024.4
20260830181837 85 186 3.0 8.0 0.00 0.00 0.00 63 1024.4
20260830181814 85 221 3.0 8.0 0.00 0.00 0.00 64 1024.4
20260830181801 85 215 3.0 8.0 0.00 0.00 0.00 64 1024.4
20260830181535 85 192 3.0 8.0 0.00 0.00 0.00 65 1024.5
20260830181436 85 190 3.0 8.0 0.00 0.00 0.00 65 1024.4
20260830181331 85 190 3.0 8.0 0.00 0.00 0.00 65 1024.4
20260830181231 85 161 3.0 8.0 0.00 0.00 0.00 65 1024.4
20260830181205 85 188 3.0 8.0 0.00 0.00 0.00 65 1024.5
20260830181154 85 173 2.0 8.0 0.00 0.00 0.00 65 1024.5
20260830180929 85 213 3.0 7.0 0.00 0.00 0.00 65 1024.5
20260830180825 85 198 3.0 7.0 0.00 0.00 0.00 65 1024.5
20260830180725 85 178 3.0 7.0 0.00 0.00 0.00 66 1024.6
20260830180625 85 172 3.0 7.0 0.00 0.00 0.00 66 1024.6
20260830180526 85 174 3.0 7.0 0.00 0.00 0.00 66 1024.5
20260830180423 85 161 3.0 7.0 0.00 0.00 0.00 67 1024.5
20260830180315 85 196 3.0 7.0 0.00 0.00 0.00 66 1024.5
20260830180305 85 213 3.0 7.0 0.00 0.00 0.00 67 1024.6
20260830180250 85 213 3.0 7.0 0.00 0.00 0.00 65 1024.5
20260830180016 84 208 3.0 9.0 0.00 0.00 0.00 66 1024.6
20260830175915 84 236 3.0 9.0 0.00 0.00 0.00 66 1024.6
20260830175814 84 169 3.0 11.0 0.00 0.00 0.00 67 1024.7
20260830175715 84 207 3.0 11.0 0.00 0.00 0.00 67 1024.6
20260830175615 84 121 3.0 11.0 0.00 0.00 0.00 67 1024.6
20260830175514 84 257 3.0 11.0 0.00 0.00 0.00 67 1024.6
20260830175411 84 232 3.0 11.0 0.00 0.00 0.00 68 1024.6
20260830175311 84 199 3.0 11.0 0.00 0.00 0.00 67 1024.6
20260830175228 84 93 3.0 8.0 0.00 0.00 0.00 67 1024.6
20260830175223 84 199 3.0 11.0 0.00 0.00 0.00 68 1024.5
20260830175213 84 246 3.0 11.0 0.00 0.00 0.00 67 1024.6
20260830175206 84 98 3.0 8.0 0.00 0.00 0.00 67 1024.5
20260830175149 84 225 3.0 11.0 0.00 0.00 0.00 68 1024.5
20260830175014 84 213 3.0 9.0 0.00 0.00 0.00 67 1024.5
20260830174848 84 185 3.0 9.0 0.00 0.00 0.00 66 1024.6
20260830174505 84 146 3.0 8.0 0.00 0.00 0.00 67 1024.6
20260830174440 84 175 3.0 8.0 0.00 0.00 0.00 67 1024.6
20260830174429 84 219 3.0 8.0 0.00 0.00 0.00 67 1024.6
20260830174206 84 189 2.0 8.0 0.00 0.00 0.00 69 1024.6
20260830174058 84 156 2.0 8.0 0.00 0.00 0.00 70 1024.7
20260830173959 84 178 2.0 8.0 0.00 0.00 0.00 70 1024.7
20260830173859 84 131 2.0 8.0 0.00 0.00 0.00 70 1024.6
20260830173759 84 176 2.0 5.0 0.00 0.00 0.00 70 1024.7
20260830173659 83 173 2.0 8.0 0.00 0.00 0.00 70 1024.7
20260830173632 83 209 2.0 8.0 0.00 0.00 0.00 70 1024.7
20260830173621 83 184 3.0 8.0 0.00 0.00 0.00 70 1024.7
20260830173404 83 204 3.0 8.0 0.00 0.00 0.00 69 1024.7
20260830173255 83 133 3.0 8.0 0.00 0.00 0.00 69 1024.7
20260830173156 83 133 3.0 8.0 0.00 0.00 0.00 68 1024.8
20260830173056 83 240 3.0 8.0 0.00 0.00 0.00 68 1024.8
20260830172952 84 240 3.0 8.0 0.00 0.00 0.00 68 1024.8
20260830172850 84 242 3.0 8.0 0.00 0.00 0.00 68 1024.7
20260830172750 84 196 3.0 8.0 0.00 0.00 0.00 69 1024.7
20260830172723 83 186 3.0 8.0 0.00 0.00 0.00 69 1024.8
20260830172713 84 199 3.0 8.0 0.00 0.00 0.00 69 1024.7
20260830172450 83 182 3.0 8.0 0.00 0.00 0.00 69 1024.7
20260830172349 83 182 3.0 8.0 0.00 0.00 0.00 68 1024.8
20260830172247 83 132 3.0 8.0 0.00 0.00 0.00 68 1024.9
20260830172146 83 173 3.0 8.0 0.00 0.00 0.00 69 1024.8
20260830172046 83 255 2.0 8.0 0.00 0.00 0.00 69 1024.9
20260830171948 83 211 2.0 7.0 0.00 0.00 0.00 70 1024.9
20260830171919 83 169 2.0 8.0 0.00 0.00 0.00 71 1024.9
20260830171907 83 215 2.0 7.0 0.00 0.00 0.00 71 1024.9
20260830171644 83 166 2.0 8.0 0.00 0.00 0.00 71 1024.9
20260830171548 83 204 2.0 8.0 0.00 0.00 0.00 72 1025.1
20260830171505 83 324 2.0 8.0 0.00 0.00 0.00 71 1025.1
20260830171459 83 324 3.0 8.0 0.00 0.00 0.00 71 1025.1
20260830171446 83 166 2.0 8.0 0.00 0.00 0.00 70 1025.1
20260830171425 83 171 2.0 8.0 0.00 0.00 0.00 70 1025.1
20260830171045 83 321 3.0 8.0 0.00 0.00 0.00 71 1025.1
20260830170943 83 94 3.0 8.0 0.00 0.00 0.00 71 1025.1
20260830170845 83 134 3.0 8.0 0.00 0.00 0.00 71 1025.2
20260830170743 83 172 3.0 9.0 0.00 0.00 0.00 71 1025.2
20260830170643 83 194 3.0 9.0 0.00 0.00 0.00 72 1025.2
20260830170625 83 229 3.0 9.0 0.00 0.00 0.00 72 1025.2
20260830170620 83 215 3.0 9.0 0.00 0.00 0.00 73 1025.2
20260830170616 82 223 3.0 9.0 0.00 0.00 0.00 73 1025.3
20260830170606 83 175 3.0 9.0 0.00 0.00 0.00 73 1025.3
20260830170423 83 209 3.0 9.0 0.00 0.00 0.00 73 1025.3
20260830170038 82 210 3.0 9.0 0.00 0.00 0.00 73 1025.3
20260830165938 82 200 3.0 9.0 0.00 0.00 0.00 74 1025.3
20260830165837 82 200 3.0 9.0 0.00 0.00 0.00 74 1025.3
20260830165739 82 193 3.0 8.0 0.00 0.00 0.00 75 1025.3
20260830165637 82 214 2.0 8.0 0.00 0.00 0.00 75 1025.2
20260830165536 82 199 2.0 8.0 0.00 0.00 0.00 74 1025.3
20260830165437 82 196 2.0 8.0 0.00 0.00 0.00 74 1025.3
20260830165338 82 187 2.0 8.0 0.00 0.00 0.00 74 1025.2
20260830165254 82 204 2.0 8.0 0.00 0.00 0.00 74 1025.2
20260830165137 82 201 2.0 8.0 0.00 0.00 0.00 74 1025.3
20260830165038 82 213 3.0 9.0 0.00 0.00 0.00 75 1025.2
20260830164939 81 213 3.0 9.0 0.00 0.00 0.00 75 1025.2
20260830164835 81 142 3.0 9.0 0.00 0.00 0.00 75 1025.2
20260830164736 81 237 3.0 9.0 0.00 0.00 0.00 74 1025.3
20260830164636 82 214 3.0 9.0 0.00 0.00 0.00 74 1025.3
20260830164534 82 128 3.0 9.0 0.00 0.00 0.00 73 1025.3
20260830164428 82 94 3.0 9.0 0.00 0.00 0.00 73 1025.4
20260830164329 82 216 3.0 9.0 0.00 0.00 0.00 74 1025.4
20260830164229 82 176 3.0 9.0 0.00 0.00 0.00 73 1025.3
20260830164127 82 157 3.0 9.0 0.00 0.00 0.00 74 1025.4
20260830164028 82 186 3.0 7.0 0.00 0.00 0.00 74 1025.3
20260830163921 81 244 3.0 7.0 0.00 0.00 0.00 74 1025.3
20260830163822 81 240 3.0 7.0 0.00 0.00 0.00 74 1025.3
20260830163721 81 232 3.0 7.0 0.00 0.00 0.00 75 1025.4
20260830163621 81 178 3.0 7.0 0.00 0.00 0.00 76 1025.3
20260830163548 80 223 3.0 9.0 0.00 0.00 0.00 76 1025.4
20260830163538 80 184 3.0 7.0 0.00 0.00 0.00 76 1025.3
20260830163351 80 216 3.0 9.0 0.00 0.00 0.00 76 1025.4
20260830163339 80 157 3.0 9.0 0.00 0.00 0.00 76 1025.3
20260830163121 80 192 3.0 11.0 0.00 0.00 0.00 75 1025.3
20260830163012 80 175 3.0 11.0 0.00 0.00 0.00 75 1025.4
20260830162905 80 175 3.0 11.0 0.00 0.00 0.00 75 1025.4
20260830162807 80 193 3.0 11.0 0.00 0.00 0.00 75 1025.3
20260830162706 80 218 3.0 11.0 0.00 0.00 0.00 75 1025.3
20260830162650 81 193 3.0 11.0 0.00 0.00 0.00 75 1025.2
20260830162637 81 98 3.0 11.0 0.00 0.00 0.00 75 1025.3
20260830162406 81 197 3.0 11.0 0.00 0.00 0.00 75 1025.3
20260830162306 81 161 3.0 12.0 0.00 0.00 0.00 74 1025.2
20260830162207 81 185 3.0 12.0 0.00 0.00 0.00 74 1025.2
20260830162105 81 196 3.0 12.0 0.00 0.00 0.00 74 1025.2
20260830162008 81 235 3.0 12.0 0.00 0.00 0.00 74 1025.3
20260830161905 81 224 3.0 12.0 0.00 0.00 0.00 74 1025.3
20260830161804 81 150 3.0 12.0 0.00 0.00 0.00 74 1025.4
20260830161706 81 175 3.0 12.0 0.00 0.00 0.00 75 1025.4
20260830161605 80 186 3.0 12.0 0.00 0.00 0.00 76 1025.4
20260830161505 80 128 3.0 12.0 0.00 0.00 0.00 75 1025.3
20260830161403 80 252 3.0 10.0 0.00 0.00 0.00 77 1025.3
20260830161301 80 198 3.0 9.0 0.00 0.00 0.00 77 1025.4
20260830161226 80 79 3.0 8.0 0.00 0.00 0.00 77 1025.3
20260830161216 80 176 3.0 8.0 0.00 0.00 0.00 77 1025.4
20260830160956 80 211 3.0 8.0 0.00 0.00 0.00 77 1025.4
20260830160855 80 248 3.0 8.0 0.00 0.00 0.00 77 1025.4
20260830160755 80 153 3.0 8.0 0.00 0.00 0.00 77 1025.4
20260830160650 80 170 3.0 8.0 0.00 0.00 0.00 78 1025.4
20260830160549 80 169 3.0 8.0 0.00 0.00 0.00 78 1025.4
20260830160450 80 144 3.0 8.0 0.00 0.00 0.00 78 1025.4
20260830160346 80 188 3.0 7.0 0.00 0.00 0.00 78 1025.4
20260830160249 80 103 3.0 7.0 0.00 0.00 0.00 78 1025.3
20260830160145 80 284 3.0 7.0 0.00 0.00 0.00 80 1025.4
20260830160122 80 200 3.0 7.0 0.00 0.00 0.00 79 1025.3
20260830160110 80 177 3.0 7.0 0.00 0.00 0.00 79 1025.3
20260830155843 79 187 3.0 7.0 0.00 0.00 0.00 79 1025.3
20260830155820 79 194 3.0 7.0 0.00 0.00 0.00 80 1025.4
20260830155809 79 192 3.0 7.0 0.00 0.00 0.00 79 1025.3
20260830155542 79 236 3.0 7.0 0.00 0.00 0.00 80 1025.4
20260830155442 79 261 3.0 8.0 0.00 0.00 0.00 80 1025.3
20260830155347 78 190 3.0 8.0 0.00 0.00 0.00 81 1025.3
20260830155243 78 157 3.0 8.0 0.00 0.00 0.00 80 1025.3
20260830155142 78 196 3.0 8.0 0.00 0.00 0.00 81 1025.3
20260830155112 78 172 3.0 8.0 0.00 0.00 0.00 81 1025.3
20260830155103 78 194 3.0 8.0 0.00 0.00 0.00 81 1025.3
20260830154844 78 191 3.0 10.0 0.00 0.00 0.00 81 1025.4
20260830154815 78 159 3.0 10.0 0.00 0.00 0.00 81 1025.3
20260830154804 78 215 3.0 10.0 0.00 0.00 0.00 81 1025.4
20260830154618 78 203 3.0 10.0 0.00 0.00 0.00 81 1025.3
20260830154605 78 207 3.0 10.0 0.00 0.00 0.00 81 1025.4
20260830154342 78 209 3.0 10.0 0.00 0.00 0.00 81 1025.4
20260830154242 78 208 3.0 10.0 0.00 0.00 0.00 81 1025.4
20260830154144 78 184 2.0 10.0 0.00 0.00 0.00 81 1025.3
20260830154046 78 198 2.0 10.0 0.00 0.00 0.00 81 1025.4
20260830153942 78 194 2.0 10.0 0.00 0.00 0.00 81 1025.4
20260830153843 78 220 2.0 8.0 0.00 0.00 0.00 82 1025.3
20260830153742 78 206 2.0 8.0 0.00 0.00 0.00 82 1025.4
20260830153643 78 155 2.0 8.0 0.00 0.00 0.00 82 1025.4
20260830153614 78 201 3.0 8.0 0.00 0.00 0.00 81 1025.3
20260830153604 78 175 3.0 8.0 0.00 0.00 0.00 81 1025.4
20260830153343 78 142 3.0 8.0 0.00 0.00 0.00 81 1025.3
20260830153244 78 213 3.0 8.0 0.00 0.00 0.00 82 1025.3
20260830153144 77 222 3.0 8.0 0.00 0.00 0.00 82 1025.3
20260830153043 77 207 3.0 8.0 0.00 0.00 0.00 82 1025.4
20260830152949 77 214 3.0 7.0 0.00 0.00 0.00 82 1025.3
20260830152910 77 185 3.0 7.0 0.00 0.00 0.00 83 1025.3
20260830152900 77 199 3.0 7.0 0.00 0.00 0.00 82 1025.3
20260830152639 77 174 3.0 8.0 0.00 0.00 0.00 83 1025.4
20260830152538 77 202 3.0 8.0 0.00 0.00 0.00 83 1025.3
20260830152455 77 174 2.0 8.0 0.00 0.00 0.00 83 1025.3
20260830152444 77 219 3.0 8.0 0.00 0.00 0.00 83 1025.3
20260830152421 77 164 3.0 8.0 0.00 0.00 0.00 83 1025.3
20260830152300 77 182 2.0 8.0 0.00 0.00 0.00 83 1025.3
20260830152040 77 165 2.0 8.0 0.00 0.00 0.00 83 1025.3
20260830151938 77 199 2.0 8.0 0.00 0.00 0.00 83 1025.4
20260830151840 77 216 3.0 8.0 0.00 0.00 0.00 84 1025.4
20260830151738 77 169 3.0 8.0 0.00 0.00 0.00 84 1025.3
20260830151639 77 208 3.0 8.0 0.00 0.00 0.00 84 1025.3
20260830151544 77 209 3.0 8.0 0.00 0.00 0.00 84 1025.3
20260830151438 77 105 3.0 8.0 0.00 0.00 0.00 84 1025.3
20260830151339 77 169 3.0 9.0 0.00 0.00 0.00 84 1025.3
20260830151313 77 169 4.0 9.0 0.00 0.00 0.00 84 1025.3
20260830151301 77 169 3.0 9.0 0.00 0.00 0.00 84 1025.3
20260830151038 77 215 4.0 9.0 0.00 0.00 0.00 84 1025.3
20260830150939 76 173 4.0 9.0 0.00 0.00 0.00 85 1025.3
20260830150840 76 205 3.0 9.0 0.00 0.00 0.00 85 1025.2
20260830150814 76 194 4.0 9.0 0.00 0.00 0.00 85 1025.2
20260830150801 76 250 3.0 9.0 0.00 0.00 0.00 85 1025.2
20260830150557 76 209 3.0 9.0 0.00 0.00 0.00 85 1025.2
20260830150544 76 188 3.0 9.0 0.00 0.00 0.00 85 1025.3
20260830150520 76 211 3.0 9.0 0.00 0.00 0.00 85 1025.3
20260830150400 76 183 3.0 9.0 0.00 0.00 0.00 85 1025.2
20260830150211 76 200 3.0 9.0 0.00 0.00 0.00 86 1025.3
20260830150200 76 202 3.0 9.0 0.00 0.00 0.00 85 1025.2
20260830150131 76 186 3.0 9.0 0.00 0.00 0.00 85 1025.2
20260830150011 76 200 3.0 9.0 0.00 0.00 0.00 86 1025.2
20260830145740 76 202 3.0 9.0 0.00 0.00 0.00 86 1025.2
20260830145638 76 176 3.0 9.0 0.00 0.00 0.00 86 1025.2
20260830145540 76 207 3.0 8.0 0.00 0.00 0.00 86 1025.2
20260830145438 76 204 3.0 9.0 0.00 0.00 0.00 86 1025.3
20260830145338 76 204 3.0 9.0 0.00 0.00 0.00 86 1025.2
20260830145316 75 210 3.0 11.0 0.00 0.00 0.00 86 1025.2
20260830145310 75 216 4.0 11.0 0.00 0.00 0.00 86 1025.2
20260830145256 76 232 4.0 9.0 0.00 0.00 0.00 86 1025.2
20260830145238 76 207 3.0 11.0 0.00 0.00 0.00 86 1025.3
20260830144955 75 196 3.0 11.0 0.00 0.00 0.00 87 1025.2
20260830144942 75 212 3.0 11.0 0.00 0.00 0.00 86 1025.3
20260830144919 75 220 3.0 11.0 0.00 0.00 0.00 86 1025.2
20260830144613 75 202 3.0 11.0 0.00 0.00 0.00 87 1025.2
20260830144603 75 247 3.0 11.0 0.00 0.00 0.00 87 1025.3
20260830144339 75 211 3.0 11.0 0.00 0.00 0.00 87 1025.3
20260830144239 75 222 3.0 11.0 0.00 0.00 0.00 87 1025.2
20260830144135 75 224 3.0 7.0 0.00 0.00 0.00 87 1025.2
20260830144034 75 232 3.0 6.0 0.00 0.00 0.00 87 1025.3
20260830144005 75 201 2.0 6.0 0.00 0.00 0.00 87 1025.2
20260830143955 75 221 3.0 6.0 0.00 0.00 0.00 87 1025.1
20260830143735 75 209 3.0 6.0 0.00 0.00 0.00 87 1025.2
20260830143634 75 194 3.0 8.0 0.00 0.00 0.00 87 1025.2
20260830143532 75 194 3.0 8.0 0.00 0.00 0.00 87 1025.2
20260830143433 75 194 3.0 8.0 0.00 0.00 0.00 87 1025.1
20260830143334 75 254 3.0 8.0 0.00 0.00 0.00 87 1025.2
20260830143232 74 227 3.0 8.0 0.00 0.00 0.00 88 1025.2
20260830143132 74 200 3.0 8.0 0.00 0.00 0.00 88 1025.2
20260830143027 74 227 3.0 8.0 0.00 0.00 0.00 88 1025.2
20260830142925 74 210 3.0 8.0 0.00 0.00 0.00 88 1025.2
20260830142826 74 210 3.0 8.0 0.00 0.00 0.00 88 1025.2
20260830142725 74 224 3.0 8.0 0.00 0.00 0.00 88 1025.2
20260830142653 74 194 3.0 8.0 0.00 0.00 0.00 88 1025.2
20260830142642 74 209 3.0 7.0 0.00 0.00 0.00 88 1025.2
20260830142454 74 169 3.0 8.0 0.00 0.00 0.00 88 1025.2
20260830142443 74 198 3.0 8.0 0.00 0.00 0.00 88 1025.2
20260830142218 74 223 3.0 8.0 0.00 0.00 0.00 88 1025.3
20260830142116 74 195 3.0 8.0 0.00 0.00 0.00 88 1025.3
20260830142016 74 225 3.0 8.0 0.00 0.00 0.00 88 1025.2
20260830141914 74 178 3.0 8.0 0.00 0.00 0.00 88 1025.2
20260830141846 74 220 3.0 8.0 0.00 0.00 0.00 88 1025.2
20260830141835 74 190 3.0 8.0 0.00 0.00 0.00 88 1025.3
20260830141641 74 209 3.0 7.0 0.00 0.00 0.00 88 1025.2
20260830141631 74 224 3.0 8.0 0.00 0.00 0.00 89 1025.2
20260830141406 73 210 3.0 7.0 0.00 0.00 0.00 88 1025.2
20260830141306 73 215 3.0 7.0 0.00 0.00 0.00 89 1025.2
20260830141207 73 182 3.0 7.0 0.00 0.00 0.00 89 1025.2
20260830141141 73 204 3.0 7.0 0.00 0.00 0.00 88 1025.2
20260830141130 73 213 3.0 7.0 0.00 0.00 0.00 89 1025.3
20260830140904 73 211 3.0 7.0 0.00 0.00 0.00 89 1025.2
20260830140804 73 256 3.0 7.0 0.00 0.00 0.00 89 1025.3
20260830140700 73 208 3.0 7.0 0.00 0.00 0.00 89 1025.3
20260830140600 73 213 3.0 7.0 0.00 0.00 0.00 89 1025.2
20260830140501 73 184 3.0 7.0 0.00 0.00 0.00 89 1025.2
20260830140358 73 163 3.0 8.0 0.00 0.00 0.00 89 1025.1
20260830140256 73 196 3.0 8.0 0.00 0.00 0.00 89 1025.2
20260830140231 73 209 3.0 8.0 0.00 0.00 0.00 89 1025.1
20260830140219 73 207 3.0 8.0 0.00 0.00 0.00 89 1025.1
20260830135953 73 212 3.0 8.0 0.00 0.00 0.00 89 1025.1
20260830135853 73 213 3.0 8.0 0.00 0.00 0.00 89 1025.1
20260830135750 73 186 3.0 8.0 0.00 0.00 0.00 89 1025.1
20260830135650 73 209 3.0 8.0 0.00 0.00 0.00 89 1025.1
20260830135550 73 180 3.0 8.0 0.00 0.00 0.00 89 1024.9
20260830135451 73 241 3.0 8.0 0.00 0.00 0.00 89 1024.9
20260830135351 73 209 3.0 6.0 0.00 0.00 0.00 89 1024.9
20260830135250 73 216 3.0 6.0 0.00 0.00 0.00 89 1024.9
20260830135145 72 228 3.0 6.0 0.00 0.00 0.00 89 1024.9
20260830135044 72 196 3.0 6.0 0.00 0.00 0.00 89 1024.9
20260830135000 72 194 3.0 6.0 0.00 0.00 0.00 89 1024.8
20260830134956 72 188 3.0 6.0 0.00 0.00 0.00 89 1024.8
20260830134946 72 216 3.0 6.0 0.00 0.00 0.00 89 1024.9
20260830134940 72 198 3.0 6.0 0.00 0.00 0.00 89 1024.8
20260830134925 72 216 3.0 6.0 0.00 0.00 0.00 89 1024.9
20260830134730 72 180 3.0 6.0 0.00 0.00 0.00 89 1024.8
20260830134348 72 213 3.0 6.0 0.00 0.00 0.00 89 1024.7
20260830134240 72 211 3.0 6.0 0.00 0.00 0.00 89 1024.8
20260830134135 72 236 3.0 8.0 0.00 0.00 0.00 89 1024.8
20260830134033 72 209 3.0 8.0 0.00 0.00 0.00 89 1024.7
20260830133939 72 219 3.0 8.0 0.00 0.00 0.00 89 1024.7
20260830133835 72 219 3.0 9.0 0.00 0.00 0.00 89 1024.7
20260830133729 72 219 3.0 9.0 0.00 0.00 0.00 89 1024.8
20260830133627 72 199 3.0 9.0 0.00 0.00 0.00 89 1024.9
20260830133528 72 188 3.0 9.0 0.00 0.00 0.00 89 1024.8
20260830133427 72 139 3.0 9.0 0.00 0.00 0.00 89 1024.8
20260830133327 72 191 3.0 9.0 0.00 0.00 0.00 89 1024.9
20260830133308 72 196 3.0 9.0 0.00 0.00 0.00 89 1024.9
20260830133302 72 214 3.0 9.0 0.00 0.00 0.00 89 1024.9
20260830133247 72 212 3.0 9.0 0.00 0.00 0.00 89 1024.9
20260830133222 72 212 3.0 9.0 0.00 0.00 0.00 89 1024.9
20260830132833 72 196 3.0 8.0 0.00 0.00 0.00 89 1024.9
20260830132727 72 205 3.0 8.0 0.00 0.00 0.00 89 1024.9
20260830132630 72 200 3.0 8.0 0.00 0.00 0.00 89 1024.8
20260830132530 72 174 3.0 8.0 0.00 0.00 0.00 89 1024.9
20260830132522 72 202 3.0 8.0 0.00 0.00 0.00 89 1024.7
20260830132518 72 173 3.0 8.0 0.00 0.00 0.00 89 1024.8
20260830132512 72 173 3.0 8.0 0.00 0.00 0.00 89 1024.7
20260830132505 72 222 3.0 8.0 0.00 0.00 0.00 89 1024.7
20260830132448 72 169 3.0 8.0 0.00 0.00 0.00 89 1024.8
20260830132419 72 164 3.0 8.0 0.00 0.00 0.00 89 1024.8
20260830132359 72 178 3.0 8.0 0.00 0.00 0.00 89 1024.7
20260830132043 72 196 3.0 8.0 0.00 0.00 0.00 89 1024.7
20260830131759 72 183 3.0 8.0 0.00 0.00 0.00 88 1024.8
20260830131745 72 255 3.0 8.0 0.00 0.00 0.00 89 1024.8
20260830131607 72 187 3.0 8.0 0.00 0.00 0.00 88 1024.7
20260830131602 72 215 3.0 8.0 0.00 0.00 0.00 88 1024.6
20260830131555 72 196 3.0 8.0 0.00 0.00 0.00 88 1024.7
20260830131534 72 190 3.0 8.0 0.00 0.00 0.00 88 1024.7
20260830131511 72 213 3.0 8.0 0.00 0.00 0.00 88 1024.7
20260830131452 72 235 3.0 8.0 0.00 0.00 0.00 88 1024.7
20260830131427 72 167 3.0 8.0 0.00 0.00 0.00 88 1024.7
20260830130842 72 219 3.0 8.0 0.00 0.00 0.00 88 1024.7
20260830130645 72 215 3.0 8.0 0.00 0.00 0.00 88 1024.7
20260830130632 72 228 3.0 8.0 0.00 0.00 0.00 89 1024.7
20260830130408 72 215 3.0 8.0 0.00 0.00 0.00 88 1024.6
20260830130303 72 221 3.0 8.0 0.00 0.00 0.00 88 1024.6
20260830130201 72 205 3.0 8.0 0.00 0.00 0.00 88 1024.5
20260830130107 72 165 3.0 8.0 0.00 0.00 0.00 88 1024.6
20260830130000 72 180 3.0 8.0 0.00 0.00 0.00 88 1024.5
20260830125903 72 194 3.0 8.0 0.00 0.00 0.00 88 1024.6
20260830125759 72 194 3.0 8.0 0.00 0.00 0.00 88 1024.6
20260830125655 72 198 3.0 8.0 0.00 0.00 0.00 88 1024.5
20260830125555 72 180 3.0 8.0 0.00 0.00 0.00 88 1024.5
20260830125455 72 182 3.0 8.0 0.00 0.00 0.00 88 1024.5
20260830125356 72 207 3.0 7.0 0.00 0.00 0.00 88 1024.5
20260830125255 72 221 3.0 7.0 0.00 0.00 0.00 88 1024.5
20260830125151 72 185 3.0 7.0 0.00 0.00 0.00 88 1024.5
20260830125051 72 212 3.0 7.0 0.00 0.00 0.00 88 1024.5
20260830124950 72 197 3.0 7.0 0.00 0.00 0.00 88 1024.5
20260830124852 72 211 3.0 7.0 0.00 0.00 0.00 88 1024.4
20260830124749 72 216 3.0 7.0 0.00 0.00 0.00 88 1024.5
20260830124652 72 197 3.0 8.0 0.00 0.00 0.00 88 1024.4
20260830124550 72 200 3.0 8.0 0.00 0.00 0.00 88 1024.4
20260830124450 72 189 3.0 8.0 0.00 0.00 0.00 88 1024.4
20260830124350 72 171 3.0 8.0 0.00 0.00 0.00 88 1024.5
20260830124250 72 181 3.0 8.0 0.00 0.00 0.00 88 1024.4
20260830124228 72 217 3.0 11.0 0.00 0.00 0.00 89 1024.4
20260830124223 72 200 3.0 9.0 0.00 0.00 0.00 88 1024.4
20260830124217 72 180 3.0 11.0 0.00 0.00 0.00 88 1024.4
20260830124206 72 184 3.0 8.0 0.00 0.00 0.00 88 1024.4
20260830124143 72 221 3.0 9.0 0.00 0.00 0.00 88 1024.3
20260830123838 72 180 3.0 11.0 0.00 0.00 0.00 88 1024.3
20260830123715 72 202 3.0 11.0 0.00 0.00 0.00 89 1024.4
20260830123449 72 194 3.0 11.0 0.00 0.00 0.00 89 1024.3
20260830123425 72 188 3.0 11.0 0.00 0.00 0.00 89 1024.3
20260830123414 72 195 4.0 11.0 0.00 0.00 0.00 89 1024.3
20260830123224 72 211 3.0 11.0 0.00 0.00 0.00 89 1024.3
20260830123212 72 167 3.0 11.0 0.00 0.00 0.00 89 1024.3
20260830122949 72 268 3.0 11.0 0.00 0.00 0.00 89 1024.3
20260830122848 72 178 3.0 10.0 0.00 0.00 0.00 89 1024.3
20260830122745 72 152 3.0 10.0 0.00 0.00 0.00 89 1024.4
20260830122647 72 223 3.0 10.0 0.00 0.00 0.00 89 1024.4
20260830122618 71 170 3.0 10.0 0.00 0.00 0.00 88 1024.2
20260830122614 72 174 2.0 10.0 0.00 0.00 0.00 89 1024.3
20260830122608 72 175 3.0 10.0 0.00 0.00 0.00 89 1024.3
20260830122603 72 180 3.0 10.0 0.00 0.00 0.00 89 1024.3
20260830122550 72 181 3.0 10.0 0.00 0.00 0.00 89 1024.4
20260830122543 72 174 3.0 10.0 0.00 0.00 0.00 88 1024.2
20260830122528 72 187 2.0 10.0 0.00 0.00 0.00 89 1024.3
20260830122504 72 211 2.0 7.0 0.00 0.00 0.00 89 1024.3
20260830122329 72 176 2.0 10.0 0.00 0.00 0.00 89 1024.3
20260830121802 71 187 3.0 10.0 0.00 0.00 0.00 88 1024.1
20260830121545 72 182 3.0 10.0 0.00 0.00 0.00 88 1024.2
20260830121436 72 198 3.0 10.0 0.00 0.00 0.00 88 1024.1
20260830121335 72 169 3.0 10.0 0.00 0.00 0.00 88 1024.1
20260830121237 72 211 3.0 9.0 0.00 0.00 0.00 88 1024.1
20260830121129 72 202 3.0 9.0 0.00 0.00 0.00 88 1024.1
20260830121027 72 171 3.0 9.0 0.00 0.00 0.00 88 1024.1
20260830120926 72 214 3.0 9.0 0.00 0.00 0.00 88 1024.0
20260830120827 72 182 3.0 9.0 0.00 0.00 0.00 88 1024.0
20260830120727 72 119 3.0 9.0 0.00 0.00 0.00 88 1024.0
20260830120627 72 191 3.0 9.0 0.00 0.00 0.00 88 1024.1
20260830120528 72 207 3.0 9.0 0.00 0.00 0.00 88 1024.1
20260830120424 72 219 3.0 9.0 0.00 0.00 0.00 88 1024.0
20260830120322 72 163 3.0 9.0 0.00 0.00 0.00 88 1024.0
20260830120224 72 159 3.0 9.0 0.00 0.00 0.00 88 1024.0
20260830120121 72 208 3.0 9.0 0.00 0.00 0.00 88 1024.0
20260830120024 72 227 3.0 9.0 0.00 0.00 0.00 88 1024.0
20260830115924 72 206 3.0 8.0 0.00 0.00 0.00 88 1024.0
20260830115822 72 140 3.0 8.0 0.00 0.00 0.00 88 1024.0
20260830115723 72 147 3.0 8.0 0.00 0.00 0.00 88 1024.0
20260830115656 72 174 3.0 7.0 0.00 0.00 0.00 88 1024.0
20260830115645 72 223 3.0 8.0 0.00 0.00 0.00 88 1024.0
20260830115417 72 190 3.0 7.0 0.00 0.00 0.00 88 1023.9
20260830115320 72 188 3.0 7.0 0.00 0.00 0.00 88 1023.9
20260830115216 72 246 3.0 7.0 0.00 0.00 0.00 88 1024.0
20260830115134 72 184 3.0 7.0 0.00 0.00 0.00 88 1024.0
20260830115128 72 221 3.0 7.0 0.00 0.00 0.00 88 1024.0
20260830115117 72 222 3.0 7.0 0.00 0.00 0.00 88 1024.0
20260830115052 72 222 3.0 7.0 0.00 0.00 0.00 88 1024.0
20260830114712 72 229 3.0 7.0 0.00 0.00 0.00 88 1024.0
20260830114611 72 173 3.0 5.0 0.00 0.00 0.00 88 1024.0
20260830114506 72 196 3.0 5.0 0.00 0.00 0.00 88 1023.9
20260830114406 72 198 3.0 6.0 0.00 0.00 0.00 88 1023.9
20260830114306 72 177 3.0 6.0 0.00 0.00 0.00 88 1023.9
20260830114212 72 225 2.0 6.0 0.00 0.00 0.00 88 1023.8
20260830114106 72 198 2.0 6.0 0.00 0.00 0.00 88 1023.9
20260830113959 72 202 3.0 6.0 0.00 0.00 0.00 88 1023.8
20260830113931 72 211 3.0 8.0 0.00 0.00 0.00 88 1023.9
20260830113921 72 183 3.0 6.0 0.00 0.00 0.00 88 1023.9
20260830113657 72 226 3.0 8.0 0.00 0.00 0.00 88 1023.9
20260830113555 72 210 3.0 8.0 0.00 0.00 0.00 88 1023.8
20260830113454 72 165 3.0 8.0 0.00 0.00 0.00 88 1023.8
20260830113420 72 207 3.0 8.0 0.00 0.00 0.00 88 1023.9
20260830113411 72 180 3.0 8.0 0.00 0.00 0.00 88 1023.8
20260830113151 72 211 3.0 11.0 0.00 0.00 0.00 88 1023.9
20260830113049 72 165 3.0 11.0 0.00 0.00 0.00 88 1023.8
20260830112949 72 192 3.0 11.0 0.00 0.00 0.00 88 1023.8
20260830112848 72 221 3.0 11.0 0.00 0.00 0.00 88 1023.8
20260830112820 72 234 3.0 11.0 0.00 0.00 0.00 88 1023.9
20260830112808 72 232 3.0 11.0 0.00 0.00 0.00 88 1023.8
20260830112544 72 243 3.0 11.0 0.00 0.00 0.00 88 1023.8
20260830112444 72 201 3.0 11.0 0.00 0.00 0.00 88 1023.8
20260830112344 72 157 3.0 11.0 0.00 0.00 0.00 88 1023.8
20260830112246 72 213 3.0 11.0 0.00 0.00 0.00 88 1023.8
20260830112143 72 198 3.0 6.0 0.00 0.00 0.00 88 1023.8
20260830112043 72 198 3.0 6.0 0.00 0.00 0.00 88 1023.8
20260830111947 72 168 3.0 6.0 0.00 0.00 0.00 88 1023.8
20260830111838 72 196 3.0 6.0 0.00 0.00 0.00 88 1023.9
20260830111738 72 194 3.0 6.0 0.00 0.00 0.00 88 1023.8
20260830111635 72 207 2.0 8.0 0.00 0.00 0.00 88 1023.8
20260830111536 72 215 3.0 11.0 0.00 0.00 0.00 87 1023.8
20260830111434 72 199 3.0 11.0 0.00 0.00 0.00 87 1023.8
20260830111334 72 219 3.0 11.0 0.00 0.00 0.00 87 1023.7
20260830111309 72 206 3.0 11.0 0.00 0.00 0.00 87 1023.8
20260830111259 72 206 3.0 11.0 0.00 0.00 0.00 87 1023.8
20260830111109 72 237 3.0 11.0 0.00 0.00 0.00 87 1023.8
20260830111057 72 225 3.0 11.0 0.00 0.00 0.00 87 1023.8
20260830110836 72 202 3.0 11.0 0.00 0.00 0.00 87 1023.8
20260830110732 72 161 3.0 11.0 0.00 0.00 0.00 87 1023.8
20260830110633 72 169 3.0 11.0 0.00 0.00 0.00 87 1023.8
20260830110531 72 217 3.0 10.0 0.00 0.00 0.00 87 1023.8
20260830110431 72 178 3.0 10.0 0.00 0.00 0.00 87 1023.8
20260830110352 72 201 3.0 8.0 0.00 0.00 0.00 87 1023.8
20260830110346 72 211 3.0 8.0 0.00 0.00 0.00 87 1023.8
20260830110336 72 227 3.0 10.0 0.00 0.00 0.00 87 1023.8
20260830110315 72 175 3.0 8.0 0.00 0.00 0.00 87 1023.8
20260830105928 72 205 3.0 8.0 0.00 0.00 0.00 87 1023.7
20260830105904 72 158 3.0 8.0 0.00 0.00 0.00 87 1023.7
20260830105852 72 176 3.0 7.0 0.00 0.00 0.00 87 1023.7
20260830105630 72 181 3.0 8.0 0.00 0.00 0.00 87 1023.7
20260830105528 72 200 2.0 8.0 0.00 0.00 0.00 87 1023.7
20260830105446 72 180 2.0 8.0 0.00 0.00 0.00 87 1023.6
20260830105433 72 186 2.0 8.0 0.00 0.00 0.00 87 1023.7
20260830105337 72 180 2.0 8.0 0.00 0.00 0.00 87 1023.6
20260830105228 72 229 3.0 8.0 0.00 0.00 0.00 87 1023.6
20260830105206 72 209 3.0 8.0 0.00 0.00 0.00 87 1023.6
20260830105152 72 221 3.0 8.0 0.00 0.00 0.00 87 1023.7
20260830104920 72 121 3.0 8.0 0.00 0.00 0.00 87 1023.6
20260830104822 72 178 3.0 8.0 0.00 0.00 0.00 86 1023.6
20260830104721 72 187 3.0 7.0 0.00 0.00 0.00 86 1023.6
20260830104621 72 134 3.0 7.0 0.00 0.00 0.00 86 1023.6
20260830104516 72 200 3.0 7.0 0.00 0.00 0.00 86 1023.6
20260830104413 72 213 3.0 7.0 0.00 0.00 0.00 86 1023.6
20260830104356 72 217 3.0 7.0 0.00 0.00 0.00 86 1023.6
20260830104340 72 205 3.0 7.0 0.00 0.00 0.00 86 1023.6
20260830104115 72 173 3.0 7.0 0.00 0.00 0.00 86 1023.6
20260830104014 72 224 3.0 8.0 0.00 0.00 0.00 86 1023.5
20260830103916 72 206 3.0 8.0 0.00 0.00 0.00 86 1023.5
20260830103813 72 190 3.0 8.0 0.00 0.00 0.00 86 1023.6
20260830103747 72 233 3.0 8.0 0.00 0.00 0.00 86 1023.6
20260830103738 72 259 3.0 8.0 0.00 0.00 0.00 86 1023.6
20260830103512 72 187 3.0 8.0 0.00 0.00 0.00 86 1023.6
20260830103443 72 149 3.0 8.0 0.00 0.00 0.00 86 1023.6
20260830103433 72 179 3.0 8.0 0.00 0.00 0.00 86 1023.6
20260830103210 72 212 3.0 8.0 0.00 0.00 0.00 86 1023.6
20260830103146 72 202 3.0 7.0 0.00 0.00 0.00 86 1023.6
20260830103135 72 163 3.0 8.0 0.00 0.00 0.00 86 1023.6
20260830102910 72 200 3.0 7.0 0.00 0.00 0.00 86 1023.7
20260830102807 72 183 3.0 9.0 0.00 0.00 0.00 86 1023.6
20260830102707 72 196 3.0 9.0 0.00 0.00 0.00 86 1023.6
20260830102607 72 176 3.0 9.0 0.00 0.00 0.00 86 1023.6
20260830102505 72 224 3.0 9.0 0.00 0.00 0.00 86 1023.7
20260830102403 73 164 3.0 9.0 0.00 0.00 0.00 86 1023.6
20260830102258 73 169 3.0 9.0 0.00 0.00 0.00 86 1023.5
20260830102157 73 234 3.0 9.0 0.00 0.00 0.00 86 1023.6
20260830102056 73 228 3.0 9.0 0.00 0.00 0.00 86 1023.6
20260830101957 73 184 2.0 9.0 0.00 0.00 0.00 86 1023.6
20260830101857 73 209 2.0 9.0 0.00 0.00 0.00 86 1023.6
20260830101753 73 148 2.0 6.0 0.00 0.00 0.00 86 1023.6
20260830101655 73 113 2.0 6.0 0.00 0.00 0.00 86 1023.6
20260830101625 73 221 3.0 6.0 0.00 0.00 0.00 86 1023.6
20260830101615 73 219 3.0 6.0 0.00 0.00 0.00 86 1023.6
20260830101352 73 180 2.0 8.0 0.00 0.00 0.00 86 1023.6
20260830101244 73 169 2.0 8.0 0.00 0.00 0.00 86 1023.5
20260830101221 73 168 3.0 8.0 0.00 0.00 0.00 86 1023.6
20260830101209 73 209 2.0 8.0 0.00 0.00 0.00 86 1023.5
20260830100944 73 167 3.0 8.0 0.00 0.00 0.00 86 1023.4
20260830100841 73 146 3.0 8.0 0.00 0.00 0.00 85 1023.5
20260830100738 73 175 3.0 8.0 0.00 0.00 0.00 85 1023.4
20260830100638 73 203 3.0 8.0 0.00 0.00 0.00 85 1023.4
20260830100536 73 205 3.0 8.0 0.00 0.00 0.00 86 1023.4
20260830100436 73 180 3.0 8.0 0.00 0.00 0.00 85 1023.4
20260830100336 73 246 3.0 8.0 0.00 0.00 0.00 86 1023.4
20260830100237 73 221 3.0 8.0 0.00 0.00 0.00 86 1023.4
20260830100137 73 194 3.0 7.0 0.00 0.00 0.00 86 1023.4
20260830100037 73 215 3.0 7.0 0.00 0.00 0.00 86 1023.4
20260830095934 73 124 3.0 7.0 0.00 0.00 0.00 86 1023.4
20260830095917 73 219 3.0 7.0 0.00 0.00 0.00 86 1023.4
20260830095905 73 190 3.0 7.0 0.00 0.00 0.00 86 1023.4
20260830095633 73 209 3.0 7.0 0.00 0.00 0.00 86 1023.5
20260830095535 73 217 3.0 7.0 0.00 0.00 0.00 86 1023.4
20260830095432 73 173 3.0 8.0 0.00 0.00 0.00 86 1023.4
20260830095334 73 186 3.0 8.0 0.00 0.00 0.00 86 1023.4
20260830095232 73 205 3.0 8.0 0.00 0.00 0.00 86 1023.4
20260830095138 73 143 3.0 8.0 0.00 0.00 0.00 85 1023.4
20260830095033 73 203 3.0 8.0 0.00 0.00 0.00 85 1023.2
20260830094929 73 163 3.0 8.0 0.00 0.00 0.00 86 1023.2
20260830094828 73 182 3.0 9.0 0.00 0.00 0.00 86 1023.4
20260830094727 73 231 3.0 9.0 0.00 0.00 0.00 85 1023.4
20260830094627 73 190 3.0 9.0 0.00 0.00 0.00 85 1023.2
20260830094521 73 182 3.0 9.0 0.00 0.00 0.00 85 1023.2
20260830094420 73 191 3.0 9.0 0.00 0.00 0.00 85 1023.4
20260830094321 73 196 3.0 9.0 0.00 0.00 0.00 85 1023.2
20260830094221 73 140 3.0 9.0 0.00 0.00 0.00 85 1023.2
20260830094121 73 176 3.0 9.0 0.00 0.00 0.00 85 1023.4
20260830094016 73 212 3.0 9.0 0.00 0.00 0.00 85 1023.2
20260830093916 73 184 3.0 9.0 0.00 0.00 0.00 85 1023.4
20260830093821 73 169 3.0 9.0 0.00 0.00 0.00 85 1023.4
20260830093717 73 184 3.0 10.0 0.00 0.00 0.00 85 1023.2
20260830093647 73 189 3.0 10.0 0.00 0.00 0.00 85 1023.2
20260830093638 73 225 3.0 10.0 0.00 0.00 0.00 85 1023.4
20260830093415 73 213 3.0 10.0 0.00 0.00 0.00 85 1023.2
20260830093314 73 213 3.0 11.0 0.00 0.00 0.00 85 1023.4
20260830093214 73 215 3.0 11.0 0.00 0.00 0.00 85 1023.2
20260830093113 73 177 3.0 11.0 0.00 0.00 0.00 84 1023.2
20260830093013 73 174 3.0 11.0 0.00 0.00 0.00 84 1023.4
20260830092945 73 163 2.0 11.0 0.00 0.00 0.00 84 1023.4
20260830092936 73 174 3.0 11.0 0.00 0.00 0.00 84 1023.2
20260830092747 73 165 3.0 11.0 0.00 0.00 0.00 84 1023.4
20260830092738 73 171 2.0 11.0 0.00 0.00 0.00 84 1023.2
20260830092513 73 208 3.0 11.0 0.00 0.00 0.00 84 1023.2
20260830092414 73 242 3.0 11.0 0.00 0.00 0.00 84 1023.2
20260830092301 73 192 3.0 8.0 0.00 0.00 0.00 84 1023.4
20260830092201 73 176 3.0 8.0 0.00 0.00 0.00 84 1023.4
20260830092101 73 174 3.0 8.0 0.00 0.00 0.00 84 1023.4
20260830091959 73 173 3.0 8.0 0.00 0.00 0.00 84 1023.2
20260830091900 73 194 3.0 9.0 0.00 0.00 0.00 84 1023.2
20260830091758 73 188 3.0 9.0 0.00 0.00 0.00 84 1023.2
20260830091659 73 242 3.0 9.0 0.00 0.00 0.00 84 1023.1
20260830091555 73 216 3.0 9.0 0.00 0.00 0.00 84 1023.2
20260830091457 73 213 3.0 9.0 0.00 0.00 0.00 84 1023.2
20260830091354 73 208 3.0 9.0 0.00 0.00 0.00 84 1023.2
20260830091322 73 210 3.0 9.0 0.00 0.00 0.00 84 1023.2
20260830091312 73 208 3.0 9.0 0.00 0.00 0.00 84 1023.1
20260830091123 73 222 3.0 9.0 0.00 0.00 0.00 84 1023.1
20260830091112 73 185 3.0 9.0 0.00 0.00 0.00 84 1023.2
20260830090850 73 123 3.0 9.0 0.00 0.00 0.00 84 1023.1
20260830090819 73 166 3.0 10.0 0.00 0.00 0.00 84 1023.2
20260830090804 73 203 3.0 9.0 0.00 0.00 0.00 84 1023.2
20260830090540 73 223 3.0 10.0 0.00 0.00 0.00 84 1023.2
20260830090439 73 211 3.0 10.0 0.00 0.00 0.00 84 1023.2
20260830090406 73 221 3.0 10.0 0.00 0.00 0.00 84 1023.2
20260830090356 73 163 3.0 10.0 0.00 0.00 0.00 84 1023.2
20260830090136 73 134 3.0 10.0 0.00 0.00 0.00 84 1023.2
20260830090036 73 138 3.0 10.0 0.00 0.00 0.00 84 1023.2
20260830085933 73 186 3.0 10.0 0.00 0.00 0.00 84 1023.2
20260830085833 73 194 3.0 10.0 0.00 0.00 0.00 84 1023.2
20260830085731 73 166 3.0 10.0 0.00 0.00 0.00 84 1023.4
20260830085655 73 198 3.0 10.0 0.00 0.00 0.00 83 1023.2
20260830085642 73 201 3.0 10.0 0.00 0.00 0.00 84 1023.2
20260830085616 73 203 3.0 10.0 0.00 0.00 0.00 84 1023.2
20260830085454 73 200 3.0 10.0 0.00 0.00 0.00 83 1023.2
20260830085316 73 218 3.0 7.0 0.00 0.00 0.00 83 1023.2
20260830085257 73 180 3.0 7.0 0.00 0.00 0.00 83 1023.2
20260830085025 73 138 3.0 7.0 0.00 0.00 0.00 83 1023.2
20260830084925 73 184 3.0 9.0 0.00 0.00 0.00 83 1023.2
20260830084854 73 198 3.0 9.0 0.00 0.00 0.00 83 1023.2
20260830084845 73 221 3.0 9.0 0.00 0.00 0.00 83 1023.2
20260830084625 73 209 3.0 10.0 0.00 0.00 0.00 83 1023.1
20260830084519 73 209 3.0 10.0 0.00 0.00 0.00 83 1023.2
20260830084421 73 188 4.0 10.0 0.00 0.00 0.00 83 1023.1
20260830084320 73 187 4.0 11.0 0.00 0.00 0.00 83 1023.1
20260830084218 73 221 4.0 11.0 0.00 0.00 0.00 83 1023.1
20260830084118 73 143 4.0 11.0 0.00 0.00 0.00 83 1023.1
20260830084054 73 173 4.0 11.0 0.00 0.00 0.00 83 1023.1
20260830084042 73 182 4.0 11.0 0.00 0.00 0.00 83 1023.1
20260830083819 73 194 3.0 11.0 0.00 0.00 0.00 83 1023.0
20260830083717 73 198 3.0 11.0 0.00 0.00 0.00 83 1023.0
20260830083618 73 253 3.0 11.0 0.00 0.00 0.00 83 1023.1
20260830083518 73 191 3.0 11.0 0.00 0.00 0.00 83 1023.1
20260830083417 73 171 3.0 11.0 0.00 0.00 0.00 83 1023.0
20260830083318 73 183 3.0 9.0 0.00 0.00 0.00 83 1023.0
20260830083217 73 227 3.0 8.0 0.00 0.00 0.00 83 1023.0
20260830083119 73 165 3.0 8.0 0.00 0.00 0.00 83 1023.1
20260830083020 73 188 3.0 8.0 0.00 0.00 0.00 83 1023.1
20260830082951 73 189 3.0 6.0 0.00 0.00 0.00 83 1023.1
20260830082939 73 172 3.0 8.0 0.00 0.00 0.00 83 1023.1
20260830082914 73 200 3.0 8.0 0.00 0.00 0.00 83 1023.1
20260830082739 73 198 3.0 8.0 0.00 0.00 0.00 83 1023.1
20260830082706 73 191 3.0 8.0 0.00 0.00 0.00 83 1023.1
20260830082413 73 182 3.0 6.0 0.00 0.00 0.00 83 1023.1
20260830082316 73 109 3.0 6.0 0.00 0.00 0.00 82 1023.0
20260830082222 73 290 3.0 6.0 0.00 0.00 0.00 82 1023.2
20260830082117 73 136 3.0 9.0 0.00 0.00 0.00 82 1023.1
20260830082016 73 163 3.0 9.0 0.00 0.00 0.00 82 1023.2
20260830082003 73 193 3.0 9.0 0.00 0.00 0.00 82 1023.1
20260830081946 73 250 3.0 9.0 0.00 0.00 0.00 82 1023.1
20260830081710 73 184 3.0 9.0 0.00 0.00 0.00 82 1023.2
20260830081700 74 167 3.0 9.0 0.00 0.00 0.00 82 1023.2
20260830081647 74 178 3.0 9.0 0.00 0.00 0.00 82 1023.2
20260830081413 74 170 3.0 9.0 0.00 0.00 0.00 82 1023.2
20260830081310 73 195 3.0 9.0 0.00 0.00 0.00 82 1023.4
20260830081211 74 185 3.0 9.0 0.00 0.00 0.00 82 1023.4
20260830081113 74 168 3.0 9.0 0.00 0.00 0.00 82 1023.4
20260830081013 74 182 3.0 9.0 0.00 0.00 0.00 82 1023.2
20260830080910 74 228 3.0 9.0 0.00 0.00 0.00 82 1023.2
20260830080811 73 179 3.0 9.0 0.00 0.00 0.00 82 1023.2
20260830080712 73 233 3.0 9.0 0.00 0.00 0.00 82 1023.2
20260830080705 73 166 3.0 9.0 0.00 0.00 0.00 82 1023.2
20260830080644 73 194 3.0 9.0 0.00 0.00 0.00 82 1023.2
20260830080412 73 191 3.0 11.0 0.00 0.00 0.00 82 1023.1